2016 Cux-Wetter.de -Die Nutzung der Wetterdaten nur mit ausdrcklicher Genehmigung
Wetterdaten: Sonntag, 03.07.2016
Datum Zeit Temp. A. Feuchte A. Luftdruck Regen Wind Richtung Richtung Sonnenschein Solar Taupunkt Windchill Windben
03.07.2016 00:00 11,8 C 94 % 1013,6 hPa 0,0 l/m 3,1 km/h (1 Bft) S 175 0 min 0 W/m 10,9 C 11,8 C 4,8 km/h (1 Bft)
03.07.2016 00:03 11,8 C 94 % 1013,6 hPa 0,0 l/m 4,7 km/h (1 Bft) W-SW 247 0 min 0 W/m 10,9 C 11,8 C 8,0 km/h (2 Bft)
03.07.2016 00:06 11,9 C 94 % 1013,6 hPa 0,0 l/m 5,9 km/h (2 Bft) S-SW 202 0 min 0 W/m 11,0 C 11,9 C 11,3 km/h (2 Bft)
03.07.2016 00:09 12,2 C 94 % 1013,6 hPa 0,0 l/m 8,2 km/h (2 Bft) SW 224 0 min 0 W/m 11,3 C 11,0 C 19,3 km/h (3 Bft)
03.07.2016 00:12 12,3 C 93 % 1013,6 hPa 0,2 l/m 9,3 km/h (2 Bft) S-SW 209 0 min 0 W/m 11,2 C 10,5 C 17,7 km/h (3 Bft)
03.07.2016 00:15 12,6 C 92 % 1013,6 hPa 0,0 l/m 9,1 km/h (2 Bft) SW 221 0 min 0 W/m 11,3 C 10,9 C 14,5 km/h (3 Bft)
03.07.2016 00:18 12,7 C 91 % 1013,6 hPa 0,0 l/m 8,7 km/h (2 Bft) S-SW 209 0 min 0 W/m 11,3 C 11,3 C 14,5 km/h (3 Bft)
03.07.2016 00:21 12,8 C 91 % 1013,6 hPa 0,0 l/m 8,2 km/h (2 Bft) S-SW 195 0 min 0 W/m 11,4 C 11,7 C 12,9 km/h (3 Bft)
03.07.2016 00:24 12,9 C 90 % 1013,6 hPa 0,0 l/m 8,4 km/h (2 Bft) S-SW 213 0 min 0 W/m 11,3 C 11,7 C 12,9 km/h (3 Bft)
03.07.2016 00:27 13,0 C 90 % 1013,6 hPa 0,0 l/m 6,5 km/h (2 Bft) SW 225 0 min 0 W/m 11,4 C 13,0 C 9,7 km/h (2 Bft)
03.07.2016 00:30 13,1 C 90 % 1013,6 hPa 0,0 l/m 8,5 km/h (2 Bft) SW 225 0 min 0 W/m 11,5 C 11,8 C 16,1 km/h (3 Bft)
03.07.2016 00:33 13,2 C 90 % 1013,6 hPa 0,0 l/m 8,3 km/h (2 Bft) SW 218 0 min 0 W/m 11,6 C 12,0 C 17,7 km/h (3 Bft)
03.07.2016 00:36 13,2 C 89 % 1013,6 hPa 0,0 l/m 6,5 km/h (2 Bft) SW 234 0 min 0 W/m 11,4 C 13,2 C 9,7 km/h (2 Bft)
03.07.2016 00:39 13,2 C 89 % 1013,6 hPa 0,2 l/m 6,5 km/h (2 Bft) S 186 0 min 0 W/m 11,4 C 13,2 C 11,3 km/h (2 Bft)
03.07.2016 00:42 13,2 C 89 % 1013,6 hPa 0,0 l/m 4,0 km/h (1 Bft) S-SW 202 0 min 0 W/m 11,4 C 13,2 C 6,4 km/h (2 Bft)
03.07.2016 00:45 13,1 C 90 % 1013,6 hPa 0,0 l/m 2,3 km/h (1 Bft) S-SO 163 0 min 0 W/m 11,5 C 13,1 C 8,0 km/h (2 Bft)
03.07.2016 00:48 12,9 C 90 % 1013,6 hPa 0,0 l/m 4,8 km/h (1 Bft) S-SO 166 0 min 0 W/m 11,3 C 12,9 C 8,0 km/h (2 Bft)
03.07.2016 00:51 12,8 C 91 % 1013,6 hPa 0,0 l/m 4,0 km/h (1 Bft) S-SO 165 0 min 0 W/m 11,4 C 12,8 C 8,0 km/h (2 Bft)
03.07.2016 00:54 12,6 C 91 % 1013,6 hPa 0,0 l/m 3,5 km/h (1 Bft) S 187 0 min 0 W/m 11,2 C 12,6 C 9,7 km/h (2 Bft)
03.07.2016 00:57 12,5 C 92 % 1013,5 hPa 0,0 l/m 4,6 km/h (1 Bft) S-SO 155 0 min 0 W/m 11,2 C 12,5 C 9,7 km/h (2 Bft)
03.07.2016 01:00 12,4 C 92 % 1013,5 hPa 0,0 l/m 3,9 km/h (1 Bft) S 173 0 min 0 W/m 11,1 C 12,4 C 6,4 km/h (2 Bft)
03.07.2016 01:03 12,3 C 92 % 1013,5 hPa 0,0 l/m 5,2 km/h (1 Bft) S-SO 165 0 min 0 W/m 11,0 C 12,3 C 9,7 km/h (2 Bft)
03.07.2016 01:06 12,2 C 93 % 1013,5 hPa 0,0 l/m 3,6 km/h (1 Bft) S-SO 165 0 min 0 W/m 11,1 C 12,2 C 8,0 km/h (2 Bft)
03.07.2016 01:09 12,1 C 93 % 1013,5 hPa 0,0 l/m 4,2 km/h (1 Bft) S 174 0 min 0 W/m 11,0 C 12,1 C 8,0 km/h (2 Bft)
03.07.2016 01:12 12,1 C 93 % 1013,5 hPa 0,0 l/m 4,5 km/h (1 Bft) S 175 0 min 0 W/m 11,0 C 12,1 C 8,0 km/h (2 Bft)
03.07.2016 01:15 12,1 C 93 % 1013,5 hPa 0,0 l/m 4,2 km/h (1 Bft) S 173 0 min 0 W/m 11,0 C 12,1 C 8,0 km/h (2 Bft)
03.07.2016 01:18 12,1 C 94 % 1013,5 hPa 0,0 l/m 4,6 km/h (1 Bft) S 181 0 min 0 W/m 11,2 C 12,1 C 8,0 km/h (2 Bft)
03.07.2016 01:21 12,1 C 94 % 1013,5 hPa 0,0 l/m 5,5 km/h (2 Bft) SO 140 0 min 0 W/m 11,2 C 12,1 C 8,0 km/h (2 Bft)
03.07.2016 01:24 12,0 C 94 % 1013,5 hPa 0,0 l/m 5,2 km/h (1 Bft) SO 128 0 min 0 W/m 11,1 C 12,0 C 9,7 km/h (2 Bft)
03.07.2016 01:27 11,9 C 94 % 1013,5 hPa 0,0 l/m 5,3 km/h (1 Bft) S 177 0 min 0 W/m 11,0 C 11,9 C 9,7 km/h (2 Bft)
03.07.2016 01:30 11,9 C 94 % 1013,5 hPa 0,0 l/m 4,9 km/h (1 Bft) S 178 0 min 0 W/m 11,0 C 11,9 C 8,0 km/h (2 Bft)
03.07.2016 01:33 11,8 C 94 % 1013,5 hPa 0,0 l/m 4,2 km/h (1 Bft) S 184 0 min 0 W/m 10,9 C 11,8 C 8,0 km/h (2 Bft)
03.07.2016 01:36 11,8 C 94 % 1013,4 hPa 0,0 l/m 4,7 km/h (1 Bft) S 171 0 min 0 W/m 10,9 C 11,8 C 8,0 km/h (2 Bft)
03.07.2016 01:39 11,8 C 94 % 1013,5 hPa 0,0 l/m 5,2 km/h (1 Bft) S-SO 168 0 min 0 W/m 10,9 C 11,8 C 8,0 km/h (2 Bft)
03.07.2016 01:42 11,7 C 94 % 1013,5 hPa 0,0 l/m 6,4 km/h (2 Bft) S 178 0 min 0 W/m 10,8 C 11,7 C 11,3 km/h (2 Bft)
03.07.2016 01:45 11,7 C 94 % 1013,4 hPa 0,0 l/m 7,9 km/h (2 Bft) S 172 0 min 0 W/m 10,8 C 10,7 C 12,9 km/h (3 Bft)
03.07.2016 01:48 11,7 C 94 % 1013,4 hPa 0,0 l/m 7,0 km/h (2 Bft) SO 142 0 min 0 W/m 10,8 C 11,3 C 11,3 km/h (2 Bft)
03.07.2016 01:51 11,7 C 94 % 1013,5 hPa 0,0 l/m 7,5 km/h (2 Bft) S-SO 151 0 min 0 W/m 10,8 C 11,0 C 12,9 km/h (3 Bft)
03.07.2016 01:54 11,7 C 94 % 1013,4 hPa 0,0 l/m 7,5 km/h (2 Bft) S-SO 150 0 min 0 W/m 10,8 C 11,0 C 12,9 km/h (3 Bft)
03.07.2016 01:57 11,6 C 94 % 1013,4 hPa 0,0 l/m 7,1 km/h (2 Bft) S 171 0 min 0 W/m 10,7 C 11,1 C 11,3 km/h (2 Bft)
03.07.2016 02:00 11,6 C 94 % 1013,4 hPa 0,0 l/m 7,2 km/h (2 Bft) S 174 0 min 0 W/m 10,7 C 11,1 C 12,9 km/h (3 Bft)
03.07.2016 02:03 11,6 C 94 % 1013,4 hPa 0,0 l/m 7,2 km/h (2 Bft) S 179 0 min 0 W/m 10,7 C 11,1 C 14,5 km/h (3 Bft)
03.07.2016 02:06 11,6 C 94 % 1013,4 hPa 0,0 l/m 7,2 km/h (2 Bft) S 184 0 min 0 W/m 10,7 C 11,1 C 12,9 km/h (3 Bft)
03.07.2016 02:09 11,5 C 94 % 1013,4 hPa 0,0 l/m 6,9 km/h (2 Bft) S-SW 192 0 min 0 W/m 10,6 C 11,2 C 11,3 km/h (2 Bft)
03.07.2016 02:12 11,4 C 94 % 1013,4 hPa 0,0 l/m 8,0 km/h (2 Bft) S-SO 161 0 min 0 W/m 10,5 C 10,3 C 17,7 km/h (3 Bft)
03.07.2016 02:15 11,4 C 94 % 1013,4 hPa 0,0 l/m 7,2 km/h (2 Bft) S-SW 194 0 min 0 W/m 10,5 C 10,9 C 14,5 km/h (3 Bft)
03.07.2016 02:18 11,3 C 94 % 1013,4 hPa 0,0 l/m 5,9 km/h (2 Bft) S 185 0 min 0 W/m 10,4 C 11,3 C 9,7 km/h (2 Bft)
03.07.2016 02:21 11,3 C 94 % 1013,5 hPa 0,0 l/m 6,3 km/h (2 Bft) S-SW 196 0 min 0 W/m 10,4 C 11,3 C 9,7 km/h (2 Bft)
03.07.2016 02:24 11,3 C 94 % 1013,5 hPa 0,0 l/m 5,8 km/h (2 Bft) O-SO 119 0 min 0 W/m 10,4 C 11,3 C 9,7 km/h (2 Bft)
03.07.2016 02:27 11,3 C 94 % 1013,5 hPa 0,0 l/m 4,6 km/h (1 Bft) S-SO 167 0 min 0 W/m 10,4 C 11,3 C 8,0 km/h (2 Bft)
03.07.2016 02:30 11,2 C 94 % 1013,5 hPa 0,0 l/m 6,1 km/h (2 Bft) S 173 0 min 0 W/m 10,3 C 11,2 C 11,3 km/h (2 Bft)
03.07.2016 02:33 11,2 C 94 % 1013,5 hPa 0,0 l/m 5,9 km/h (2 Bft) S-SW 194 0 min 0 W/m 10,3 C 11,2 C 9,7 km/h (2 Bft)
03.07.2016 02:36 11,2 C 94 % 1013,5 hPa 0,0 l/m 4,9 km/h (1 Bft) S-SO 168 0 min 0 W/m 10,3 C 11,2 C 8,0 km/h (2 Bft)
03.07.2016 02:39 11,2 C 94 % 1013,5 hPa 0,0 l/m 5,7 km/h (2 Bft) S 171 0 min 0 W/m 10,3 C 11,2 C 9,7 km/h (2 Bft)
03.07.2016 02:42 11,1 C 95 % 1013,5 hPa 0,0 l/m 6,1 km/h (2 Bft) S 175 0 min 0 W/m 10,3 C 11,1 C 11,3 km/h (2 Bft)
03.07.2016 02:45 11,1 C 95 % 1013,5 hPa 0,0 l/m 5,8 km/h (2 Bft) S 173 0 min 0 W/m 10,3 C 11,1 C 9,7 km/h (2 Bft)
03.07.2016 02:48 11,1 C 95 % 1013,4 hPa 0,0 l/m 6,3 km/h (2 Bft) S-SO 161 0 min 0 W/m 10,3 C 11,1 C 9,7 km/h (2 Bft)
03.07.2016 02:51 11,1 C 95 % 1013,4 hPa 0,0 l/m 5,6 km/h (2 Bft) S 174 0 min 0 W/m 10,3 C 11,1 C 9,7 km/h (2 Bft)
03.07.2016 02:54 11,1 C 95 % 1013,4 hPa 0,0 l/m 5,4 km/h (2 Bft) S 171 0 min 0 W/m 10,3 C 11,1 C 9,7 km/h (2 Bft)
03.07.2016 02:57 11,1 C 95 % 1013,4 hPa 0,0 l/m 4,7 km/h (1 Bft) S 173 0 min 0 W/m 10,3 C 11,1 C 8,0 km/h (2 Bft)
03.07.2016 03:00 11,1 C 95 % 1013,4 hPa 0,0 l/m 6,2 km/h (2 Bft) S-SO 167 0 min 0 W/m 10,3 C 11,1 C 9,7 km/h (2 Bft)
03.07.2016 03:03 11,1 C 95 % 1013,4 hPa 0,0 l/m 6,0 km/h (2 Bft) S-SO 165 0 min 0 W/m 10,3 C 11,1 C 11,3 km/h (2 Bft)
03.07.2016 03:06 11,1 C 95 % 1013,4 hPa 0,0 l/m 6,3 km/h (2 Bft) S 185 0 min 0 W/m 10,3 C 11,1 C 14,5 km/h (3 Bft)
03.07.2016 03:09 11,1 C 95 % 1013,4 hPa 0,0 l/m 6,6 km/h (2 Bft) S 171 0 min 0 W/m 10,3 C 11,0 C 9,7 km/h (2 Bft)
03.07.2016 03:12 11,1 C 95 % 1013,5 hPa 0,0 l/m 5,3 km/h (1 Bft) S-SO 167 0 min 0 W/m 10,3 C 11,1 C 11,3 km/h (2 Bft)
03.07.2016 03:15 11,1 C 95 % 1013,5 hPa 0,0 l/m 6,5 km/h (2 Bft) S 178 0 min 0 W/m 10,3 C 11,1 C 9,7 km/h (2 Bft)
03.07.2016 03:18 11,1 C 95 % 1013,5 hPa 0,0 l/m 6,8 km/h (2 Bft) S 187 0 min 0 W/m 10,3 C 10,8 C 9,7 km/h (2 Bft)
03.07.2016 03:21 11,1 C 95 % 1013,5 hPa 0,0 l/m 6,7 km/h (2 Bft) S 174 0 min 0 W/m 10,3 C 10,9 C 12,9 km/h (3 Bft)
03.07.2016 03:24 11,1 C 95 % 1013,6 hPa 0,0 l/m 6,2 km/h (2 Bft) S 171 0 min 0 W/m 10,3 C 11,1 C 11,3 km/h (2 Bft)
03.07.2016 03:27 11,1 C 95 % 1013,6 hPa 0,0 l/m 5,9 km/h (2 Bft) S-SO 154 0 min 0 W/m 10,3 C 11,1 C 9,7 km/h (2 Bft)
03.07.2016 03:30 11,1 C 95 % 1013,6 hPa 0,0 l/m 5,6 km/h (2 Bft) S-SO 161 0 min 0 W/m 10,3 C 11,1 C 9,7 km/h (2 Bft)
03.07.2016 03:33 11,1 C 95 % 1013,5 hPa 0,0 l/m 6,7 km/h (2 Bft) S 179 0 min 0 W/m 10,3 C 10,9 C 11,3 km/h (2 Bft)
03.07.2016 03:36 11,1 C 95 % 1013,5 hPa 0,0 l/m 5,7 km/h (2 Bft) SO 142 0 min 0 W/m 10,3 C 11,1 C 8,0 km/h (2 Bft)
03.07.2016 03:39 11,1 C 95 % 1013,5 hPa 0,0 l/m 6,2 km/h (2 Bft) S 184 0 min 0 W/m 10,3 C 11,1 C 9,7 km/h (2 Bft)
03.07.2016 03:42 11,1 C 95 % 1013,5 hPa 0,0 l/m 5,8 km/h (2 Bft) S 182 0 min 0 W/m 10,3 C 11,1 C 9,7 km/h (2 Bft)
03.07.2016 03:45 11,0 C 95 % 1013,5 hPa 0,0 l/m 6,0 km/h (2 Bft) S-SO 159 0 min 0 W/m 10,2 C 11,0 C 11,3 km/h (2 Bft)
03.07.2016 03:48 11,0 C 95 % 1013,5 hPa 0,0 l/m 6,1 km/h (2 Bft) S 169 0 min 0 W/m 10,2 C 11,0 C 9,7 km/h (2 Bft)
03.07.2016 03:51 11,1 C 95 % 1013,5 hPa 0,0 l/m 6,7 km/h (2 Bft) S-SO 159 0 min 0 W/m 10,3 C 10,9 C 9,7 km/h (2 Bft)
03.07.2016 03:54 11,1 C 95 % 1013,4 hPa 0,0 l/m 5,4 km/h (2 Bft) S 175 0 min 0 W/m 10,3 C 11,1 C 9,7 km/h (2 Bft)
03.07.2016 03:57 11,1 C 95 % 1013,4 hPa 0,0 l/m 6,1 km/h (2 Bft) S 188 0 min 0 W/m 10,3 C 11,1 C 11,3 km/h (2 Bft)
03.07.2016 04:00 11,1 C 95 % 1013,4 hPa 0,0 l/m 6,5 km/h (2 Bft) S 173 0 min 0 W/m 10,3 C 11,1 C 11,3 km/h (2 Bft)
03.07.2016 04:03 11,1 C 95 % 1013,4 hPa 0,0 l/m 6,3 km/h (2 Bft) S-SW 204 0 min 0 W/m 10,3 C 11,1 C 12,9 km/h (3 Bft)
03.07.2016 04:06 11,2 C 95 % 1013,4 hPa 0,0 l/m 6,8 km/h (2 Bft) S-SW 194 0 min 0 W/m 10,4 C 10,9 C 12,9 km/h (3 Bft)
03.07.2016 04:09 11,2 C 95 % 1013,4 hPa 0,0 l/m 7,0 km/h (2 Bft) S 182 0 min 0 W/m 10,4 C 10,8 C 16,1 km/h (3 Bft)
03.07.2016 04:12 11,2 C 94 % 1013,4 hPa 0,0 l/m 7,7 km/h (2 Bft) S 175 0 min 0 W/m 10,3 C 10,3 C 12,9 km/h (3 Bft)
03.07.2016 04:15 11,3 C 94 % 1013,4 hPa 0,0 l/m 6,4 km/h (2 Bft) SO 142 0 min 0 W/m 10,4 C 11,3 C 11,3 km/h (2 Bft)
03.07.2016 04:18 11,3 C 94 % 1013,3 hPa 0,0 l/m 7,8 km/h (2 Bft) S-SW 211 0 min 0 W/m 10,4 C 10,3 C 14,5 km/h (3 Bft)
03.07.2016 04:21 11,3 C 95 % 1013,3 hPa 0,0 l/m 6,5 km/h (2 Bft) SW 230 0 min 0 W/m 10,5 C 11,3 C 11,3 km/h (2 Bft)
03.07.2016 04:24 11,4 C 94 % 1013,4 hPa 0,0 l/m 4,9 km/h (1 Bft) S 169 0 min 0 W/m 10,5 C 11,4 C 9,7 km/h (2 Bft)
03.07.2016 04:27 11,4 C 94 % 1013,4 hPa 0,0 l/m 4,9 km/h (1 Bft) S-SO 165 0 min 0 W/m 10,5 C 11,4 C 14,5 km/h (3 Bft)
03.07.2016 04:30 11,4 C 94 % 1013,4 hPa 0,0 l/m 6,2 km/h (2 Bft) SW 219 0 min 0 W/m 10,5 C 11,4 C 11,3 km/h (2 Bft)
03.07.2016 04:33 11,4 C 94 % 1013,4 hPa 0,0 l/m 6,3 km/h (2 Bft) SW 216 0 min 0 W/m 10,5 C 11,4 C 11,3 km/h (2 Bft)
03.07.2016 04:36 11,4 C 94 % 1013,5 hPa 0,0 l/m 4,9 km/h (1 Bft) SO 132 0 min 0 W/m 10,5 C 11,4 C 8,0 km/h (2 Bft)
03.07.2016 04:39 11,5 C 94 % 1013,5 hPa 0,0 l/m 5,7 km/h (2 Bft) SW 222 0 min 0 W/m 10,6 C 11,5 C 11,3 km/h (2 Bft)
03.07.2016 04:42 11,6 C 94 % 1013,5 hPa 0,0 l/m 5,1 km/h (1 Bft) S 188 0 min 0 W/m 10,7 C 11,6 C 11,3 km/h (2 Bft)
03.07.2016 04:45 11,6 C 94 % 1013,5 hPa 0,0 l/m 6,6 km/h (2 Bft) S 179 0 min 0 W/m 10,7 C 11,5 C 16,1 km/h (3 Bft)
03.07.2016 04:48 11,6 C 94 % 1013,5 hPa 0,0 l/m 8,2 km/h (2 Bft) S-SW 196 0 min 0 W/m 10,7 C 10,4 C 19,3 km/h (3 Bft)
03.07.2016 04:51 11,6 C 94 % 1013,4 hPa 0,0 l/m 7,2 km/h (2 Bft) S 190 0 min 0 W/m 10,7 C 11,1 C 14,5 km/h (3 Bft)
03.07.2016 04:54 11,6 C 94 % 1013,4 hPa 0,0 l/m 6,0 km/h (2 Bft) S 188 0 min 0 W/m 10,7 C 11,6 C 9,7 km/h (2 Bft)
03.07.2016 04:57 11,6 C 94 % 1013,4 hPa 0,0 l/m 6,6 km/h (2 Bft) S-SW 207 0 min 0 W/m 10,7 C 11,5 C 11,3 km/h (2 Bft)
03.07.2016 05:00 11,6 C 94 % 1013,5 hPa 0,0 l/m 6,1 km/h (2 Bft) S-SO 165 0 min 0 W/m 10,7 C 11,6 C 11,3 km/h (2 Bft)
03.07.2016 05:03 11,6 C 94 % 1013,6 hPa 0,0 l/m 6,7 km/h (2 Bft) W-SW 246 0 min 0 W/m 10,7 C 11,4 C 11,3 km/h (2 Bft)
03.07.2016 05:06 11,5 C 94 % 1013,6 hPa 0,0 l/m 8,1 km/h (2 Bft) SW 219 0 min 0 W/m 10,6 C 10,4 C 12,9 km/h (3 Bft)
03.07.2016 05:09 11,5 C 94 % 1013,6 hPa 0,0 l/m 6,2 km/h (2 Bft) S 170 0 min 0 W/m 10,6 C 11,5 C 12,9 km/h (3 Bft)
03.07.2016 05:12 11,5 C 94 % 1013,6 hPa 0,0 l/m 6,7 km/h (2 Bft) SW 232 0 min 0 W/m 10,6 C 11,3 C 12,9 km/h (3 Bft)
03.07.2016 05:15 11,5 C 94 % 1013,6 hPa 0,0 l/m 5,8 km/h (2 Bft) SW 217 0 min 0 W/m 10,6 C 11,5 C 14,5 km/h (3 Bft)
03.07.2016 05:18 11,4 C 94 % 1013,6 hPa 0,0 l/m 6,8 km/h (2 Bft) SW 227 0 min 0 W/m 10,5 C 11,1 C 11,3 km/h (2 Bft)
03.07.2016 05:21 11,4 C 94 % 1013,6 hPa 0,0 l/m 4,3 km/h (1 Bft) SW 227 0 min 0 W/m 10,5 C 11,4 C 6,4 km/h (2 Bft)
03.07.2016 05:24 11,4 C 94 % 1013,6 hPa 0,0 l/m 6,6 km/h (2 Bft) SW 231 0 min 0 W/m 10,5 C 11,3 C 11,3 km/h (2 Bft)
03.07.2016 05:27 11,4 C 94 % 1013,6 hPa 0,0 l/m 5,2 km/h (1 Bft) S-SW 211 0 min 5 W/m 10,5 C 11,4 C 8,0 km/h (2 Bft)
03.07.2016 05:30 11,4 C 94 % 1013,6 hPa 0,0 l/m 5,4 km/h (2 Bft) S 188 0 min 5 W/m 10,5 C 11,4 C 9,7 km/h (2 Bft)
03.07.2016 05:33 11,4 C 94 % 1013,6 hPa 0,0 l/m 4,6 km/h (1 Bft) S-SO 161 0 min 5 W/m 10,5 C 11,4 C 8,0 km/h (2 Bft)
03.07.2016 05:36 11,4 C 94 % 1013,6 hPa 0,0 l/m 5,6 km/h (2 Bft) SW 218 0 min 7 W/m 10,5 C 11,4 C 9,7 km/h (2 Bft)
03.07.2016 05:39 11,5 C 94 % 1013,7 hPa 0,0 l/m 6,3 km/h (2 Bft) S-SW 208 0 min 7 W/m 10,6 C 11,5 C 9,7 km/h (2 Bft)
03.07.2016 05:42 11,5 C 94 % 1013,7 hPa 0,0 l/m 7,0 km/h (2 Bft) S 188 0 min 9 W/m 10,6 C 11,1 C 14,5 km/h (3 Bft)
03.07.2016 05:45 11,5 C 94 % 1013,8 hPa 0,0 l/m 8,1 km/h (2 Bft) SW 216 0 min 9 W/m 10,6 C 10,4 C 14,5 km/h (3 Bft)
03.07.2016 05:48 11,6 C 94 % 1013,7 hPa 0,0 l/m 7,4 km/h (2 Bft) S-SW 202 0 min 9 W/m 10,7 C 10,9 C 16,1 km/h (3 Bft)
03.07.2016 05:51 11,6 C 94 % 1013,7 hPa 0,0 l/m 8,1 km/h (2 Bft) S-SW 211 0 min 9 W/m 10,7 C 10,5 C 11,3 km/h (2 Bft)
03.07.2016 05:54 11,6 C 94 % 1013,9 hPa 0,0 l/m 8,9 km/h (2 Bft) S-SW 194 0 min 11 W/m 10,7 C 10,0 C 14,5 km/h (3 Bft)
03.07.2016 05:57 11,7 C 94 % 1013,9 hPa 0,0 l/m 9,2 km/h (2 Bft) SW 232 0 min 9 W/m 10,8 C 9,9 C 16,1 km/h (3 Bft)
03.07.2016 06:00 11,7 C 94 % 1013,9 hPa 0,0 l/m 8,5 km/h (2 Bft) SW 219 0 min 9 W/m 10,8 C 10,3 C 14,5 km/h (3 Bft)
03.07.2016 06:03 11,7 C 94 % 1013,9 hPa 0,0 l/m 8,2 km/h (2 Bft) SW 231 0 min 9 W/m 10,8 C 10,5 C 14,5 km/h (3 Bft)
03.07.2016 06:06 11,7 C 94 % 1014,0 hPa 0,0 l/m 8,4 km/h (2 Bft) SW 223 0 min 9 W/m 10,8 C 10,4 C 14,5 km/h (3 Bft)
03.07.2016 06:09 11,7 C 94 % 1013,9 hPa 0,0 l/m 9,2 km/h (2 Bft) W-SW 237 0 min 9 W/m 10,8 C 9,9 C 12,9 km/h (3 Bft)
03.07.2016 06:12 11,7 C 94 % 1014,0 hPa 0,0 l/m 11,6 km/h (2 Bft) SW 236 0 min 11 W/m 10,8 C 8,7 C 16,1 km/h (3 Bft)
03.07.2016 06:15 11,8 C 94 % 1014,0 hPa 0,0 l/m 9,5 km/h (2 Bft) SW 227 0 min 14 W/m 10,9 C 9,9 C 17,7 km/h (3 Bft)
03.07.2016 06:18 11,8 C 94 % 1013,9 hPa 0,0 l/m 10,3 km/h (2 Bft) SW 215 0 min 23 W/m 10,9 C 9,4 C 17,7 km/h (3 Bft)
03.07.2016 06:21 11,8 C 94 % 1013,9 hPa 0,0 l/m 11,3 km/h (2 Bft) SW 224 0 min 25 W/m 10,9 C 8,9 C 16,1 km/h (3 Bft)
03.07.2016 06:24 11,9 C 94 % 1013,9 hPa 0,0 l/m 11,6 km/h (2 Bft) SW 225 0 min 26 W/m 11,0 C 8,9 C 17,7 km/h (3 Bft)
03.07.2016 06:27 12,0 C 94 % 1013,9 hPa 0,0 l/m 11,4 km/h (2 Bft) SW 232 0 min 28 W/m 11,1 C 9,1 C 17,7 km/h (3 Bft)
03.07.2016 06:30 12,1 C 93 % 1013,9 hPa 0,0 l/m 11,8 km/h (2 Bft) S-SW 200 0 min 28 W/m 11,0 C 9,0 C 17,7 km/h (3 Bft)
03.07.2016 06:33 12,2 C 93 % 1014,0 hPa 0,0 l/m 12,3 km/h (2 Bft) SW 229 0 min 26 W/m 11,1 C 8,9 C 19,3 km/h (3 Bft)
03.07.2016 06:36 12,2 C 93 % 1013,9 hPa 0,0 l/m 10,6 km/h (2 Bft) W 259 0 min 21 W/m 11,1 C 9,7 C 14,5 km/h (3 Bft)
03.07.2016 06:39 12,2 C 93 % 1013,9 hPa 0,0 l/m 11,1 km/h (2 Bft) S 191 0 min 16 W/m 11,1 C 9,5 C 22,5 km/h (4 Bft)
03.07.2016 06:42 12,2 C 93 % 1013,9 hPa 0,0 l/m 11,8 km/h (2 Bft) S-SW 203 0 min 12 W/m 11,1 C 9,1 C 17,7 km/h (3 Bft)
03.07.2016 06:45 12,2 C 92 % 1013,9 hPa 0,0 l/m 12,6 km/h (3 Bft) SW 227 0 min 11 W/m 10,9 C 8,8 C 19,3 km/h (3 Bft)
03.07.2016 06:48 12,2 C 92 % 1013,9 hPa 0,0 l/m 12,4 km/h (2 Bft) SW 229 0 min 11 W/m 10,9 C 8,9 C 20,9 km/h (4 Bft)
03.07.2016 06:51 12,2 C 92 % 1013,9 hPa 0,0 l/m 12,7 km/h (3 Bft) SW 224 0 min 12 W/m 10,9 C 8,7 C 24,1 km/h (4 Bft)
03.07.2016 06:54 12,2 C 92 % 1014,0 hPa 0,0 l/m 11,2 km/h (2 Bft) SW 225 0 min 12 W/m 10,9 C 9,4 C 17,7 km/h (3 Bft)
03.07.2016 06:57 12,2 C 92 % 1014,0 hPa 0,0 l/m 13,6 km/h (3 Bft) SW 232 0 min 14 W/m 10,9 C 8,4 C 19,3 km/h (3 Bft)
03.07.2016 07:00 12,3 C 92 % 1014,1 hPa 0,0 l/m 11,1 km/h (2 Bft) S-SW 211 0 min 14 W/m 11,0 C 9,6 C 19,3 km/h (3 Bft)
03.07.2016 07:03 12,3 C 92 % 1014,1 hPa 0,0 l/m 11,5 km/h (2 Bft) SW 232 0 min 14 W/m 11,0 C 9,4 C 16,1 km/h (3 Bft)
03.07.2016 07:06 12,3 C 92 % 1014,1 hPa 0,0 l/m 13,9 km/h (3 Bft) S 188 0 min 14 W/m 11,0 C 8,4 C 24,1 km/h (4 Bft)
03.07.2016 07:09 12,4 C 92 % 1014,1 hPa 0,0 l/m 14,0 km/h (3 Bft) SW 230 0 min 14 W/m 11,1 C 8,4 C 24,1 km/h (4 Bft)
03.07.2016 07:12 12,5 C 92 % 1014,1 hPa 0,0 l/m 13,1 km/h (3 Bft) SW 216 0 min 16 W/m 11,2 C 8,9 C 20,9 km/h (4 Bft)
03.07.2016 07:15 12,6 C 92 % 1014,1 hPa 0,0 l/m 12,8 km/h (3 Bft) SW 219 0 min 16 W/m 11,3 C 9,2 C 25,7 km/h (4 Bft)
03.07.2016 07:18 12,7 C 92 % 1014,1 hPa 0,0 l/m 14,5 km/h (3 Bft) SW 223 0 min 16 W/m 11,4 C 8,6 C 20,9 km/h (4 Bft)
03.07.2016 07:21 12,7 C 92 % 1014,2 hPa 0,0 l/m 15,0 km/h (3 Bft) W-SW 242 0 min 18 W/m 11,4 C 8,4 C 24,1 km/h (4 Bft)
03.07.2016 07:24 12,8 C 92 % 1014,2 hPa 0,0 l/m 13,7 km/h (3 Bft) S-SW 208 0 min 18 W/m 11,5 C 9,0 C 20,9 km/h (4 Bft)
03.07.2016 07:27 12,8 C 91 % 1014,2 hPa 0,0 l/m 14,0 km/h (3 Bft) W-SW 244 0 min 18 W/m 11,4 C 8,9 C 22,5 km/h (4 Bft)
03.07.2016 07:30 12,9 C 91 % 1014,3 hPa 0,0 l/m 13,5 km/h (3 Bft) W-SW 238 0 min 18 W/m 11,5 C 9,2 C 20,9 km/h (4 Bft)
03.07.2016 07:33 12,9 C 91 % 1014,3 hPa 0,0 l/m 13,2 km/h (3 Bft) SW 219 0 min 19 W/m 11,5 C 9,3 C 20,9 km/h (4 Bft)
03.07.2016 07:36 12,9 C 91 % 1014,4 hPa 0,0 l/m 15,2 km/h (3 Bft) SW 215 0 min 19 W/m 11,5 C 8,6 C 22,5 km/h (4 Bft)
03.07.2016 07:39 12,9 C 91 % 1014,4 hPa 0,0 l/m 15,1 km/h (3 Bft) S 176 0 min 21 W/m 11,5 C 8,6 C 25,7 km/h (4 Bft)
03.07.2016 07:42 12,9 C 91 % 1014,4 hPa 0,0 l/m 15,7 km/h (3 Bft) W-SW 237 0 min 19 W/m 11,5 C 8,4 C 22,5 km/h (4 Bft)
03.07.2016 07:45 13,0 C 90 % 1014,4 hPa 0,0 l/m 14,3 km/h (3 Bft) S 190 0 min 19 W/m 11,4 C 9,0 C 25,7 km/h (4 Bft)
03.07.2016 07:48 13,1 C 91 % 1014,4 hPa 0,0 l/m 12,0 km/h (2 Bft) SW 233 0 min 21 W/m 11,7 C 10,1 C 16,1 km/h (3 Bft)
03.07.2016 07:51 13,2 C 90 % 1014,5 hPa 0,0 l/m 13,5 km/h (3 Bft) SW 219 0 min 21 W/m 11,6 C 9,6 C 20,9 km/h (4 Bft)
03.07.2016 07:54 13,2 C 90 % 1014,5 hPa 0,0 l/m 15,5 km/h (3 Bft) SW 217 0 min 21 W/m 11,6 C 8,8 C 25,7 km/h (4 Bft)
03.07.2016 07:57 13,2 C 91 % 1014,5 hPa 0,0 l/m 14,0 km/h (3 Bft) SW 234 0 min 21 W/m 11,8 C 9,4 C 27,4 km/h (5 Bft)
03.07.2016 08:00 13,3 C 90 % 1014,4 hPa 0,0 l/m 16,7 km/h (3 Bft) S 188 0 min 21 W/m 11,7 C 8,5 C 25,7 km/h (4 Bft)
03.07.2016 08:03 13,3 C 90 % 1014,4 hPa 0,0 l/m 18,4 km/h (3 Bft) S-SW 209 0 min 19 W/m 11,7 C 8,0 C 25,7 km/h (4 Bft)
03.07.2016 08:06 13,3 C 90 % 1014,4 hPa 0,0 l/m 12,4 km/h (2 Bft) SW 235 0 min 19 W/m 11,7 C 10,1 C 20,9 km/h (4 Bft)
03.07.2016 08:09 13,4 C 90 % 1014,4 hPa 0,0 l/m 15,5 km/h (3 Bft) S-SW 209 0 min 21 W/m 11,8 C 9,1 C 22,5 km/h (4 Bft)
03.07.2016 08:12 13,6 C 90 % 1014,5 hPa 0,0 l/m 13,7 km/h (3 Bft) SW 222 0 min 21 W/m 12,0 C 10,0 C 19,3 km/h (3 Bft)
03.07.2016 08:15 13,7 C 90 % 1014,5 hPa 0,0 l/m 15,7 km/h (3 Bft) S-SO 167 0 min 21 W/m 12,1 C 9,4 C 25,7 km/h (4 Bft)
03.07.2016 08:18 13,7 C 90 % 1014,4 hPa 0,0 l/m 14,5 km/h (3 Bft) SW 236 0 min 23 W/m 12,1 C 9,8 C 20,9 km/h (4 Bft)
03.07.2016 08:21 13,8 C 90 % 1014,5 hPa 0,0 l/m 13,4 km/h (3 Bft) W-SW 246 0 min 21 W/m 12,2 C 10,3 C 25,7 km/h (4 Bft)
03.07.2016 08:24 13,9 C 89 % 1014,5 hPa 0,0 l/m 13,8 km/h (3 Bft) S-SW 209 0 min 23 W/m 12,1 C 10,3 C 22,5 km/h (4 Bft)
03.07.2016 08:27 13,9 C 89 % 1014,5 hPa 0,0 l/m 15,9 km/h (3 Bft) SW 233 0 min 21 W/m 12,1 C 9,6 C 25,7 km/h (4 Bft)
03.07.2016 08:30 13,9 C 88 % 1014,5 hPa 0,0 l/m 15,3 km/h (3 Bft) W-SW 243 0 min 23 W/m 11,9 C 9,8 C 22,5 km/h (4 Bft)
03.07.2016 08:33 13,9 C 88 % 1014,6 hPa 0,0 l/m 16,8 km/h (3 Bft) SW 234 0 min 21 W/m 11,9 C 9,3 C 25,7 km/h (4 Bft)
03.07.2016 08:36 13,9 C 88 % 1014,6 hPa 0,0 l/m 17,4 km/h (3 Bft) S 184 0 min 23 W/m 11,9 C 9,1 C 22,5 km/h (4 Bft)
03.07.2016 08:39 14,0 C 88 % 1014,6 hPa 0,0 l/m 16,4 km/h (3 Bft) W-SW 242 0 min 23 W/m 12,0 C 9,5 C 24,1 km/h (4 Bft)
03.07.2016 08:42 14,0 C 87 % 1014,7 hPa 0,0 l/m 18,7 km/h (3 Bft) SW 221 0 min 25 W/m 11,9 C 8,8 C 25,7 km/h (4 Bft)
03.07.2016 08:45 14,1 C 87 % 1014,7 hPa 0,0 l/m 16,4 km/h (3 Bft) SW 234 0 min 26 W/m 12,0 C 9,6 C 24,1 km/h (4 Bft)
03.07.2016 08:48 14,2 C 87 % 1014,7 hPa 0,0 l/m 15,5 km/h (3 Bft) S-SW 200 0 min 26 W/m 12,1 C 10,1 C 22,5 km/h (4 Bft)
03.07.2016 08:51 14,2 C 87 % 1014,7 hPa 0,0 l/m 18,6 km/h (3 Bft) S 182 0 min 25 W/m 12,1 C 9,1 C 27,4 km/h (5 Bft)
03.07.2016 08:54 14,3 C 87 % 1014,8 hPa 0,0 l/m 17,8 km/h (3 Bft) SW 227 0 min 28 W/m 12,2 C 9,5 C 27,4 km/h (5 Bft)
03.07.2016 08:57 14,3 C 86 % 1014,7 hPa 0,0 l/m 17,6 km/h (3 Bft) SW 228 0 min 25 W/m 12,0 C 9,5 C 30,6 km/h (5 Bft)
03.07.2016 09:00 14,3 C 86 % 1014,8 hPa 0,0 l/m 19,0 km/h (3 Bft) SW 220 0 min 25 W/m 12,0 C 9,1 C 32,2 km/h (5 Bft)
03.07.2016 09:03 14,4 C 86 % 1014,8 hPa 0,0 l/m 18,7 km/h (3 Bft) SW 219 0 min 30 W/m 12,1 C 9,3 C 30,6 km/h (5 Bft)
03.07.2016 09:06 14,4 C 86 % 1014,9 hPa 0,0 l/m 19,9 km/h (4 Bft) SW 222 0 min 37 W/m 12,1 C 9,0 C 27,4 km/h (5 Bft)
03.07.2016 09:09 14,4 C 85 % 1015,0 hPa 0,0 l/m 21,4 km/h (4 Bft) SW 221 0 min 51 W/m 11,9 C 8,6 C 29,0 km/h (5 Bft)
03.07.2016 09:12 14,6 C 85 % 1014,9 hPa 0,0 l/m 20,6 km/h (4 Bft) W-SW 244 0 min 65 W/m 12,1 C 9,1 C 29,0 km/h (5 Bft)
03.07.2016 09:15 14,7 C 86 % 1014,9 hPa 0,0 l/m 16,9 km/h (3 Bft) SW 232 0 min 69 W/m 12,4 C 10,2 C 27,4 km/h (5 Bft)
03.07.2016 09:18 14,8 C 85 % 1015,0 hPa 0,0 l/m 16,8 km/h (3 Bft) SW 221 0 min 93 W/m 12,3 C 10,4 C 27,4 km/h (5 Bft)
03.07.2016 09:21 14,9 C 85 % 1015,0 hPa 0,0 l/m 16,8 km/h (3 Bft) SW 236 0 min 58 W/m 12,4 C 10,5 C 25,7 km/h (4 Bft)
03.07.2016 09:24 14,9 C 85 % 1015,1 hPa 0,0 l/m 17,0 km/h (3 Bft) SW 229 0 min 72 W/m 12,4 C 10,4 C 27,4 km/h (5 Bft)
03.07.2016 09:27 15,0 C 84 % 1015,2 hPa 0,0 l/m 18,4 km/h (3 Bft) W-SW 254 0 min 65 W/m 12,3 C 10,2 C 29,0 km/h (5 Bft)
03.07.2016 09:30 15,0 C 83 % 1015,2 hPa 0,0 l/m 16,7 km/h (3 Bft) S-SW 209 0 min 58 W/m 12,1 C 10,7 C 27,4 km/h (5 Bft)
03.07.2016 09:33 14,9 C 84 % 1015,2 hPa 0,0 l/m 17,1 km/h (3 Bft) SW 233 0 min 91 W/m 12,2 C 10,4 C 29,0 km/h (5 Bft)
03.07.2016 09:36 14,9 C 84 % 1015,2 hPa 0,0 l/m 18,8 km/h (3 Bft) W-SW 253 0 min 111 W/m 12,2 C 9,9 C 27,4 km/h (5 Bft)
03.07.2016 09:39 15,0 C 85 % 1015,2 hPa 0,0 l/m 15,8 km/h (3 Bft) W-NW 284 0 min 69 W/m 12,5 C 10,9 C 25,7 km/h (4 Bft)
03.07.2016 09:42 15,2 C 84 % 1015,2 hPa 0,0 l/m 14,9 km/h (3 Bft) SW 218 0 min 172 W/m 12,5 C 11,5 C 20,9 km/h (4 Bft)
03.07.2016 09:45 15,3 C 85 % 1015,1 hPa 0,0 l/m 16,7 km/h (3 Bft) SW 229 0 min 134 W/m 12,8 C 11,0 C 22,5 km/h (4 Bft)
03.07.2016 09:48 15,3 C 84 % 1015,1 hPa 0,0 l/m 15,2 km/h (3 Bft) W-SW 242 0 min 104 W/m 12,6 C 11,5 C 24,1 km/h (4 Bft)
03.07.2016 09:51 15,3 C 84 % 1015,2 hPa 0,0 l/m 13,5 km/h (3 Bft) SW 218 0 min 151 W/m 12,6 C 12,1 C 22,5 km/h (4 Bft)
03.07.2016 09:54 15,5 C 84 % 1015,2 hPa 0,0 l/m 16,0 km/h (3 Bft) SW 232 0 min 134 W/m 12,8 C 11,5 C 25,7 km/h (4 Bft)
03.07.2016 09:57 15,4 C 83 % 1015,2 hPa 0,0 l/m 14,4 km/h (3 Bft) S-SW 213 0 min 176 W/m 12,5 C 11,9 C 19,3 km/h (3 Bft)
03.07.2016 10:00 15,6 C 84 % 1015,2 hPa 0,0 l/m 13,9 km/h (3 Bft) SW 219 0 min 70 W/m 12,9 C 12,3 C 20,9 km/h (4 Bft)
03.07.2016 10:03 15,8 C 84 % 1015,2 hPa 0,0 l/m 12,0 km/h (2 Bft) S-SW 209 0 min 95 W/m 13,1 C 13,2 C 20,9 km/h (4 Bft)
03.07.2016 10:06 15,8 C 82 % 1015,2 hPa 0,0 l/m 14,3 km/h (3 Bft) S 190 0 min 111 W/m 12,7 C 12,4 C 22,5 km/h (4 Bft)
03.07.2016 10:09 15,8 C 82 % 1015,4 hPa 0,0 l/m 18,5 km/h (3 Bft) SW 229 0 min 95 W/m 12,7 C 11,2 C 27,4 km/h (5 Bft)
03.07.2016 10:12 15,7 C 82 % 1015,3 hPa 0,0 l/m 17,5 km/h (3 Bft) SW 219 0 min 93 W/m 12,6 C 11,3 C 27,4 km/h (5 Bft)
03.07.2016 10:15 15,7 C 82 % 1015,4 hPa 0,0 l/m 16,0 km/h (3 Bft) W-SW 242 0 min 74 W/m 12,6 C 11,7 C 27,4 km/h (5 Bft)
03.07.2016 10:18 15,8 C 81 % 1015,3 hPa 0,0 l/m 15,0 km/h (3 Bft) SW 225 0 min 120 W/m 12,5 C 12,2 C 24,1 km/h (4 Bft)
03.07.2016 10:21 15,9 C 82 % 1015,4 hPa 0,0 l/m 17,3 km/h (3 Bft) SW 227 0 min 206 W/m 12,8 C 11,6 C 25,7 km/h (4 Bft)
03.07.2016 10:24 16,2 C 81 % 1015,4 hPa 0,0 l/m 14,6 km/h (3 Bft) W-SW 249 0 min 165 W/m 12,9 C 12,8 C 25,7 km/h (4 Bft)
03.07.2016 10:27 16,2 C 80 % 1015,4 hPa 0,0 l/m 17,0 km/h (3 Bft) S-SW 207 0 min 220 W/m 12,7 C 12,1 C 25,7 km/h (4 Bft)
03.07.2016 10:30 16,2 C 81 % 1015,4 hPa 0,0 l/m 11,1 km/h (2 Bft) W-SW 239 0 min 209 W/m 12,9 C 14,0 C 19,3 km/h (3 Bft)
03.07.2016 10:33 16,3 C 80 % 1015,4 hPa 0,0 l/m 13,6 km/h (3 Bft) W-SW 248 0 min 158 W/m 12,8 C 13,2 C 29,0 km/h (5 Bft)
03.07.2016 10:36 16,1 C 79 % 1015,5 hPa 0,0 l/m 18,4 km/h (3 Bft) SW 219 0 min 137 W/m 12,5 C 11,6 C 30,6 km/h (5 Bft)
03.07.2016 10:39 16,2 C 81 % 1015,5 hPa 0,0 l/m 11,0 km/h (2 Bft) S-SW 192 0 min 188 W/m 12,9 C 14,0 C 17,7 km/h (3 Bft)
03.07.2016 10:42 16,2 C 80 % 1015,5 hPa 0,0 l/m 16,9 km/h (3 Bft) SW 225 0 min 113 W/m 12,7 C 12,1 C 24,1 km/h (4 Bft)
03.07.2016 10:45 16,2 C 80 % 1015,4 hPa 0,0 l/m 17,2 km/h (3 Bft) W-SW 239 0 min 90 W/m 12,7 C 12,0 C 24,1 km/h (4 Bft)
03.07.2016 10:48 16,3 C 80 % 1015,4 hPa 0,0 l/m 14,8 km/h (3 Bft) SW 231 0 min 77 W/m 12,8 C 12,8 C 20,9 km/h (4 Bft)
03.07.2016 10:51 16,6 C 79 % 1015,4 hPa 0,0 l/m 16,8 km/h (3 Bft) SW 221 0 min 125 W/m 12,9 C 12,6 C 25,7 km/h (4 Bft)
03.07.2016 10:54 16,6 C 79 % 1015,3 hPa 0,0 l/m 15,8 km/h (3 Bft) S-SW 209 3 min 694 W/m 12,9 C 12,9 C 29,0 km/h (5 Bft)
03.07.2016 10:57 16,7 C 79 % 1015,5 hPa 0,0 l/m 16,5 km/h (3 Bft) W-SW 238 3 min 682 W/m 13,0 C 12,8 C 24,1 km/h (4 Bft)
03.07.2016 11:00 16,8 C 78 % 1015,5 hPa 0,0 l/m 14,1 km/h (3 Bft) S-SW 209 3 min 698 W/m 12,9 C 13,6 C 25,7 km/h (4 Bft)
03.07.2016 11:03 17,1 C 77 % 1015,6 hPa 0,0 l/m 14,9 km/h (3 Bft) SW 215 3 min 712 W/m 13,0 C 13,8 C 22,5 km/h (4 Bft)
03.07.2016 11:06 17,1 C 76 % 1015,5 hPa 0,0 l/m 19,4 km/h (3 Bft) SW 216 3 min 722 W/m 12,8 C 12,6 C 27,4 km/h (5 Bft)
03.07.2016 11:09 16,9 C 75 % 1015,6 hPa 0,0 l/m 17,2 km/h (3 Bft) SW 236 3 min 761 W/m 12,4 C 12,9 C 25,7 km/h (4 Bft)
03.07.2016 11:12 17,1 C 76 % 1015,6 hPa 0,0 l/m 12,9 km/h (3 Bft) SW 218 3 min 747 W/m 12,8 C 14,4 C 22,5 km/h (4 Bft)
03.07.2016 11:15 17,0 C 76 % 1015,6 hPa 0,0 l/m 18,3 km/h (3 Bft) W-SW 246 3 min 765 W/m 12,7 C 12,7 C 27,4 km/h (5 Bft)
03.07.2016 11:18 16,9 C 75 % 1015,5 hPa 0,0 l/m 16,0 km/h (3 Bft) SW 219 3 min 819 W/m 12,4 C 13,2 C 27,4 km/h (5 Bft)
03.07.2016 11:21 17,2 C 76 % 1015,5 hPa 0,0 l/m 14,4 km/h (3 Bft) SW 215 3 min 854 W/m 12,9 C 14,0 C 24,1 km/h (4 Bft)
03.07.2016 11:24 17,4 C 74 % 1015,6 hPa 0,0 l/m 15,3 km/h (3 Bft) W-SW 242 3 min 844 W/m 12,7 C 14,0 C 24,1 km/h (4 Bft)
03.07.2016 11:27 17,5 C 75 % 1015,5 hPa 0,0 l/m 17,5 km/h (3 Bft) S-SW 200 3 min 844 W/m 13,0 C 13,6 C 27,4 km/h (5 Bft)
03.07.2016 11:30 17,1 C 78 % 1015,6 hPa 0,0 l/m 14,4 km/h (3 Bft) SW 219 0 min 241 W/m 13,2 C 13,9 C 22,5 km/h (4 Bft)
03.07.2016 11:33 16,7 C 78 % 1015,5 hPa 0,0 l/m 17,7 km/h (3 Bft) SW 225 3 min 517 W/m 12,8 C 12,5 C 27,4 km/h (5 Bft)
03.07.2016 11:36 16,7 C 80 % 1015,6 hPa 0,0 l/m 12,7 km/h (3 Bft) W-SW 249 3 min 517 W/m 13,2 C 14,0 C 24,1 km/h (4 Bft)
03.07.2016 11:39 17,3 C 78 % 1015,6 hPa 0,0 l/m 12,8 km/h (3 Bft) W 261 3 min 870 W/m 13,4 C 14,7 C 19,3 km/h (3 Bft)
03.07.2016 11:42 17,8 C 77 % 1015,6 hPa 0,0 l/m 11,6 km/h (2 Bft) W-NW 289 3 min 636 W/m 13,7 C 15,6 C 20,9 km/h (4 Bft)
03.07.2016 11:45 17,9 C 75 % 1015,6 hPa 0,0 l/m 9,5 km/h (2 Bft) W 259 3 min 450 W/m 13,4 C 16,5 C 19,3 km/h (3 Bft)
03.07.2016 11:48 18,0 C 72 % 1015,6 hPa 0,0 l/m 8,3 km/h (2 Bft) W-SW 253 3 min 724 W/m 12,9 C 17,1 C 17,7 km/h (3 Bft)
03.07.2016 11:51 17,9 C 68 % 1015,6 hPa 0,0 l/m 10,8 km/h (2 Bft) SW 223 0 min 134 W/m 11,9 C 16,0 C 19,3 km/h (3 Bft)
03.07.2016 11:54 17,6 C 68 % 1015,8 hPa 0,0 l/m 7,8 km/h (2 Bft) W 265 0 min 79 W/m 11,6 C 16,9 C 16,1 km/h (3 Bft)
03.07.2016 11:57 17,1 C 67 % 1015,6 hPa 0,0 l/m 12,4 km/h (2 Bft) NW 325 0 min 42 W/m 10,9 C 14,6 C 22,5 km/h (4 Bft)
03.07.2016 12:00 16,6 C 67 % 1015,9 hPa 0,0 l/m 22,0 km/h (4 Bft) NW 317 0 min 30 W/m 10,4 C 11,4 C 40,2 km/h (6 Bft)
03.07.2016 12:03 15,9 C 71 % 1016,0 hPa 0,0 l/m 19,8 km/h (3 Bft) NW 313 0 min 14 W/m 10,6 C 11,0 C 32,2 km/h (5 Bft)
03.07.2016 12:06 15,2 C 76 % 1016,2 hPa 1,2 l/m 12,2 km/h (2 Bft) W-SW 250 0 min 11 W/m 11,0 C 12,4 C 24,1 km/h (4 Bft)
03.07.2016 12:09 14,3 C 80 % 1016,4 hPa 1,4 l/m 10,1 km/h (2 Bft) NW 312 0 min 11 W/m 10,9 C 12,3 C 19,3 km/h (3 Bft)
03.07.2016 12:12 13,5 C 82 % 1016,6 hPa 3,4 l/m 9,7 km/h (2 Bft) W-NW 294 0 min 16 W/m 10,5 C 11,6 C 19,3 km/h (3 Bft)
03.07.2016 12:15 12,7 C 84 % 1016,4 hPa 2,0 l/m 7,9 km/h (2 Bft) W 274 0 min 21 W/m 10,1 C 11,7 C 12,9 km/h (3 Bft)
03.07.2016 12:18 12,5 C 88 % 1016,2 hPa 2,0 l/m 13,5 km/h (3 Bft) W-NW 296 0 min 32 W/m 10,6 C 8,8 C 25,7 km/h (4 Bft)
03.07.2016 12:21 12,5 C 89 % 1016,1 hPa 0,4 l/m 7,0 km/h (2 Bft) S-SW 210 0 min 72 W/m 10,7 C 12,1 C 14,5 km/h (3 Bft)
03.07.2016 12:24 12,7 C 90 % 1016,1 hPa 0,2 l/m 5,8 km/h (2 Bft) S-SW 212 0 min 104 W/m 11,1 C 12,7 C 14,5 km/h (3 Bft)
03.07.2016 12:27 12,7 C 89 % 1016,2 hPa 0,0 l/m 5,8 km/h (2 Bft) S-SW 213 0 min 127 W/m 10,9 C 12,7 C 8,0 km/h (2 Bft)
03.07.2016 12:30 12,7 C 90 % 1016,1 hPa 0,2 l/m 3,3 km/h (1 Bft) S-SW 208 0 min 149 W/m 11,1 C 12,7 C 6,4 km/h (2 Bft)
03.07.2016 12:33 12,9 C 91 % 1016,2 hPa 0,0 l/m 4,6 km/h (1 Bft) S-SW 198 0 min 155 W/m 11,5 C 12,9 C 9,7 km/h (2 Bft)
03.07.2016 12:36 13,1 C 92 % 1016,2 hPa 0,0 l/m 7,9 km/h (2 Bft) SW 223 0 min 132 W/m 11,8 C 12,2 C 17,7 km/h (3 Bft)
03.07.2016 12:39 13,3 C 92 % 1016,1 hPa 0,0 l/m 9,4 km/h (2 Bft) SW 236 0 min 163 W/m 12,0 C 11,5 C 14,5 km/h (3 Bft)
03.07.2016 12:42 13,9 C 93 % 1016,1 hPa 0,0 l/m 7,8 km/h (2 Bft) SW 215 3 min 691 W/m 12,8 C 13,1 C 14,5 km/h (3 Bft)
03.07.2016 12:45 14,2 C 91 % 1016,1 hPa 0,0 l/m 8,8 km/h (2 Bft) SW 217 0 min 338 W/m 12,8 C 12,8 C 14,5 km/h (3 Bft)
03.07.2016 12:48 14,5 C 91 % 1016,1 hPa 0,0 l/m 6,9 km/h (2 Bft) S-SW 197 3 min 860 W/m 13,0 C 14,2 C 11,3 km/h (2 Bft)
03.07.2016 12:51 14,8 C 89 % 1016,1 hPa 0,0 l/m 7,6 km/h (2 Bft) SW 217 0 min 406 W/m 13,0 C 14,1 C 11,3 km/h (2 Bft)
03.07.2016 12:54 15,1 C 88 % 1016,0 hPa 0,0 l/m 6,6 km/h (2 Bft) S-SW 207 3 min 461 W/m 13,1 C 15,0 C 12,9 km/h (3 Bft)
03.07.2016 12:57 15,4 C 89 % 1016,1 hPa 0,0 l/m 8,2 km/h (2 Bft) SW 220 3 min 461 W/m 13,6 C 14,4 C 14,5 km/h (3 Bft)
03.07.2016 13:00 15,8 C 85 % 1016,1 hPa 0,0 l/m 9,5 km/h (2 Bft) W-SW 243 3 min 589 W/m 13,3 C 14,2 C 16,1 km/h (3 Bft)
03.07.2016 13:03 15,8 C 84 % 1016,0 hPa 0,0 l/m 9,9 km/h (2 Bft) S-SW 207 0 min 216 W/m 13,1 C 14,0 C 20,9 km/h (4 Bft)
03.07.2016 13:06 15,6 C 83 % 1016,1 hPa 0,0 l/m 10,9 km/h (2 Bft) W-SW 246 0 min 156 W/m 12,7 C 13,4 C 20,9 km/h (4 Bft)
03.07.2016 13:09 15,6 C 83 % 1016,2 hPa 0,0 l/m 8,7 km/h (2 Bft) S-SW 213 0 min 118 W/m 12,7 C 14,4 C 16,1 km/h (3 Bft)
03.07.2016 13:12 15,2 C 82 % 1016,2 hPa 0,0 l/m 9,9 km/h (2 Bft) SW 225 0 min 109 W/m 12,1 C 13,4 C 14,5 km/h (3 Bft)
03.07.2016 13:15 14,9 C 83 % 1016,2 hPa 0,0 l/m 6,9 km/h (2 Bft) W 263 0 min 100 W/m 12,0 C 14,6 C 11,3 km/h (2 Bft)
03.07.2016 13:18 14,9 C 86 % 1016,2 hPa 0,2 l/m 6,6 km/h (2 Bft) W 275 0 min 69 W/m 12,6 C 14,8 C 12,9 km/h (3 Bft)
03.07.2016 13:21 14,8 C 86 % 1016,3 hPa 0,0 l/m 8,1 km/h (2 Bft) W-SW 249 0 min 79 W/m 12,5 C 13,8 C 14,5 km/h (3 Bft)
03.07.2016 13:24 14,8 C 87 % 1016,4 hPa 0,0 l/m 4,8 km/h (1 Bft) W 271 0 min 105 W/m 12,7 C 14,8 C 11,3 km/h (2 Bft)
03.07.2016 13:27 14,7 C 88 % 1016,4 hPa 0,0 l/m 3,7 km/h (1 Bft) N-NW 347 0 min 95 W/m 12,7 C 14,7 C 9,7 km/h (2 Bft)
03.07.2016 13:30 14,8 C 89 % 1016,4 hPa 0,2 l/m 4,1 km/h (1 Bft) W 270 0 min 116 W/m 13,0 C 14,8 C 9,7 km/h (2 Bft)
03.07.2016 13:33 14,8 C 89 % 1016,4 hPa 0,0 l/m 4,2 km/h (1 Bft) W 265 0 min 218 W/m 13,0 C 14,8 C 6,4 km/h (2 Bft)
03.07.2016 13:36 14,8 C 89 % 1016,4 hPa 0,0 l/m 4,4 km/h (1 Bft) SW 223 0 min 287 W/m 13,0 C 14,8 C 8,0 km/h (2 Bft)
03.07.2016 13:39 15,1 C 88 % 1016,5 hPa 0,0 l/m 6,7 km/h (2 Bft) SW 225 0 min 287 W/m 13,1 C 14,9 C 9,7 km/h (2 Bft)
03.07.2016 13:42 15,3 C 87 % 1016,4 hPa 0,0 l/m 6,1 km/h (2 Bft) SW 223 0 min 306 W/m 13,1 C 15,3 C 9,7 km/h (2 Bft)
03.07.2016 13:45 15,7 C 86 % 1016,4 hPa 0,0 l/m 4,6 km/h (1 Bft) SW 223 0 min 306 W/m 13,4 C 15,7 C 9,7 km/h (2 Bft)
03.07.2016 13:48 16,2 C 85 % 1016,5 hPa 0,0 l/m 6,8 km/h (2 Bft) W-SW 250 3 min 454 W/m 13,7 C 16,0 C 11,3 km/h (2 Bft)
03.07.2016 13:51 16,3 C 82 % 1016,4 hPa 0,0 l/m 7,3 km/h (2 Bft) SW 215 0 min 353 W/m 13,2 C 15,8 C 12,9 km/h (3 Bft)
03.07.2016 13:54 16,3 C 82 % 1016,4 hPa 0,0 l/m 8,7 km/h (2 Bft) S-SW 213 0 min 429 W/m 13,2 C 15,1 C 12,9 km/h (3 Bft)
03.07.2016 13:57 16,7 C 84 % 1016,4 hPa 0,0 l/m 6,7 km/h (2 Bft) W-SW 258 0 min 193 W/m 14,0 C 16,6 C 11,3 km/h (2 Bft)
03.07.2016 14:00 17,1 C 84 % 1016,3 hPa 0,0 l/m 6,8 km/h (2 Bft) W-SW 255 0 min 250 W/m 14,4 C 16,9 C 11,3 km/h (2 Bft)
03.07.2016 14:03 17,0 C 80 % 1016,4 hPa 0,0 l/m 5,1 km/h (1 Bft) SW 219 0 min 336 W/m 13,5 C 17,0 C 12,9 km/h (3 Bft)
03.07.2016 14:06 16,7 C 82 % 1016,5 hPa 0,0 l/m 9,0 km/h (2 Bft) S-SW 212 3 min 522 W/m 13,6 C 15,4 C 22,5 km/h (4 Bft)
03.07.2016 14:09 16,6 C 82 % 1016,5 hPa 0,0 l/m 11,0 km/h (2 Bft) W-SW 239 0 min 214 W/m 13,5 C 14,5 C 20,9 km/h (4 Bft)
03.07.2016 14:12 16,2 C 83 % 1016,5 hPa 0,0 l/m 11,8 km/h (2 Bft) SW 219 0 min 155 W/m 13,3 C 13,7 C 22,5 km/h (4 Bft)
03.07.2016 14:15 15,9 C 84 % 1016,5 hPa 0,0 l/m 13,7 km/h (3 Bft) S-SW 202 0 min 163 W/m 13,2 C 12,7 C 20,9 km/h (4 Bft)
03.07.2016 14:18 15,6 C 86 % 1016,5 hPa 0,0 l/m 12,4 km/h (2 Bft) SW 233 0 min 169 W/m 13,3 C 12,8 C 19,3 km/h (3 Bft)
03.07.2016 14:21 15,4 C 86 % 1016,4 hPa 0,0 l/m 10,4 km/h (2 Bft) SW 235 0 min 209 W/m 13,1 C 13,4 C 16,1 km/h (3 Bft)
03.07.2016 14:24 15,4 C 87 % 1016,4 hPa 0,0 l/m 10,5 km/h (2 Bft) S 182 3 min 464 W/m 13,2 C 13,3 C 16,1 km/h (3 Bft)
03.07.2016 14:27 15,4 C 86 % 1016,4 hPa 0,0 l/m 10,8 km/h (2 Bft) SW 217 0 min 357 W/m 13,1 C 13,2 C 17,7 km/h (3 Bft)
03.07.2016 14:30 15,7 C 85 % 1016,3 hPa 0,0 l/m 11,6 km/h (2 Bft) W-SW 256 0 min 357 W/m 13,2 C 13,2 C 17,7 km/h (3 Bft)
03.07.2016 14:33 16,1 C 84 % 1016,3 hPa 0,0 l/m 13,2 km/h (3 Bft) SW 222 3 min 803 W/m 13,4 C 13,1 C 19,3 km/h (3 Bft)
03.07.2016 14:36 16,4 C 80 % 1016,3 hPa 0,0 l/m 14,1 km/h (3 Bft) W-SW 253 3 min 847 W/m 12,9 C 13,2 C 20,9 km/h (4 Bft)
03.07.2016 14:39 16,7 C 78 % 1016,4 hPa 0,0 l/m 10,4 km/h (2 Bft) SW 222 3 min 831 W/m 12,8 C 14,8 C 17,7 km/h (3 Bft)
03.07.2016 14:42 16,9 C 78 % 1016,4 hPa 0,0 l/m 11,3 km/h (2 Bft) SW 223 3 min 823 W/m 13,0 C 14,7 C 19,3 km/h (3 Bft)
03.07.2016 14:45 17,4 C 82 % 1016,4 hPa 0,0 l/m 9,3 km/h (2 Bft) NW 322 3 min 823 W/m 14,3 C 16,1 C 16,1 km/h (3 Bft)
03.07.2016 14:48 17,7 C 73 % 1016,4 hPa 0,0 l/m 11,6 km/h (2 Bft) W-SW 252 3 min 840 W/m 12,8 C 15,5 C 17,7 km/h (3 Bft)
03.07.2016 14:51 17,9 C 74 % 1016,5 hPa 0,0 l/m 12,8 km/h (3 Bft) SW 215 3 min 819 W/m 13,2 C 15,4 C 24,1 km/h (4 Bft)
03.07.2016 14:54 18,0 C 75 % 1016,3 hPa 0,0 l/m 7,6 km/h (2 Bft) S-SW 207 3 min 812 W/m 13,5 C 17,4 C 19,3 km/h (3 Bft)
03.07.2016 14:57 18,9 C 76 % 1016,4 hPa 0,0 l/m 10,5 km/h (2 Bft) W-NW 290 3 min 809 W/m 14,6 C 17,3 C 17,7 km/h (3 Bft)
03.07.2016 15:00 19,4 C 72 % 1016,4 hPa 0,0 l/m 12,4 km/h (2 Bft) W-NW 293 3 min 809 W/m 14,2 C 17,2 C 20,9 km/h (4 Bft)
03.07.2016 15:03 19,6 C 72 % 1016,4 hPa 0,0 l/m 11,3 km/h (2 Bft) W 267 3 min 744 W/m 14,4 C 17,8 C 20,9 km/h (4 Bft)
03.07.2016 15:06 19,6 C 70 % 1016,4 hPa 0,0 l/m 11,4 km/h (2 Bft) W-SW 241 3 min 816 W/m 14,0 C 17,7 C 19,3 km/h (3 Bft)
03.07.2016 15:09 19,5 C 73 % 1016,3 hPa 0,0 l/m 12,5 km/h (2 Bft) NW 304 3 min 823 W/m 14,5 C 17,3 C 19,3 km/h (3 Bft)
03.07.2016 15:12 20,1 C 68 % 1016,4 hPa 0,0 l/m 13,7 km/h (3 Bft) W-SW 244 3 min 830 W/m 14,0 C 17,7 C 20,9 km/h (4 Bft)
03.07.2016 15:15 19,9 C 70 % 1016,5 hPa 0,0 l/m 8,8 km/h (2 Bft) W 263 3 min 854 W/m 14,3 C 18,9 C 19,3 km/h (3 Bft)
03.07.2016 15:18 19,7 C 69 % 1016,5 hPa 0,0 l/m 11,3 km/h (2 Bft) W 279 3 min 977 W/m 13,8 C 17,9 C 17,7 km/h (3 Bft)
03.07.2016 15:21 19,7 C 68 % 1016,5 hPa 0,0 l/m 10,6 km/h (2 Bft) SW 233 3 min 891 W/m 13,6 C 18,1 C 24,1 km/h (4 Bft)
03.07.2016 15:24 19,6 C 69 % 1016,6 hPa 0,0 l/m 11,3 km/h (2 Bft) W-NW 283 3 min 874 W/m 13,8 C 17,8 C 22,5 km/h (4 Bft)
03.07.2016 15:27 19,7 C 69 % 1016,6 hPa 0,0 l/m 7,5 km/h (2 Bft) W-SW 252 3 min 874 W/m 13,8 C 19,2 C 16,1 km/h (3 Bft)
03.07.2016 15:30 19,7 C 69 % 1016,6 hPa 0,0 l/m 7,9 km/h (2 Bft) SW 231 3 min 874 W/m 13,8 C 19,1 C 19,3 km/h (3 Bft)
03.07.2016 15:33 19,8 C 66 % 1016,7 hPa 0,0 l/m 10,1 km/h (2 Bft) S-SW 212 3 min 889 W/m 13,3 C 18,4 C 22,5 km/h (4 Bft)
03.07.2016 15:36 19,9 C 66 % 1016,7 hPa 0,0 l/m 11,4 km/h (2 Bft) SW 229 3 min 874 W/m 13,4 C 18,1 C 25,7 km/h (4 Bft)
03.07.2016 15:39 20,2 C 63 % 1016,6 hPa 0,0 l/m 11,6 km/h (2 Bft) W 269 3 min 898 W/m 12,9 C 18,4 C 20,9 km/h (4 Bft)
03.07.2016 15:42 20,1 C 65 % 1016,7 hPa 0,0 l/m 12,0 km/h (2 Bft) W 278 0 min 327 W/m 13,3 C 18,1 C 22,5 km/h (4 Bft)
03.07.2016 15:45 19,5 C 65 % 1016,7 hPa 0,0 l/m 11,2 km/h (2 Bft) W-SW 240 0 min 345 W/m 12,7 C 17,7 C 20,9 km/h (4 Bft)
03.07.2016 15:48 18,8 C 68 % 1016,8 hPa 0,0 l/m 8,4 km/h (2 Bft) W-SW 254 0 min 127 W/m 12,8 C 17,9 C 19,3 km/h (3 Bft)
03.07.2016 15:51 18,6 C 68 % 1016,8 hPa 0,0 l/m 13,0 km/h (3 Bft) W-SW 244 0 min 121 W/m 12,6 C 16,1 C 25,7 km/h (4 Bft)
03.07.2016 15:54 17,9 C 71 % 1016,7 hPa 0,0 l/m 13,4 km/h (3 Bft) W-SW 249 0 min 135 W/m 12,6 C 15,2 C 24,1 km/h (4 Bft)
03.07.2016 15:57 17,4 C 74 % 1016,7 hPa 0,0 l/m 11,9 km/h (2 Bft) SW 232 0 min 144 W/m 12,7 C 15,1 C 20,9 km/h (4 Bft)
03.07.2016 16:00 16,9 C 76 % 1016,8 hPa 0,0 l/m 10,9 km/h (2 Bft) W-SW 248 0 min 183 W/m 12,6 C 14,9 C 19,3 km/h (3 Bft)
03.07.2016 16:03 16,7 C 78 % 1016,7 hPa 0,0 l/m 9,4 km/h (2 Bft) S-SW 203 3 min 394 W/m 12,8 C 15,2 C 16,1 km/h (3 Bft)
03.07.2016 16:06 16,7 C 79 % 1016,7 hPa 0,0 l/m 8,5 km/h (2 Bft) W-SW 240 0 min 336 W/m 13,0 C 15,6 C 14,5 km/h (3 Bft)
03.07.2016 16:09 16,7 C 78 % 1016,7 hPa 0,0 l/m 11,9 km/h (2 Bft) S-SW 202 0 min 336 W/m 12,8 C 14,3 C 20,9 km/h (4 Bft)
03.07.2016 16:12 16,9 C 79 % 1016,7 hPa 0,0 l/m 9,5 km/h (2 Bft) SW 221 0 min 174 W/m 13,2 C 15,4 C 16,1 km/h (3 Bft)
03.07.2016 16:15 17,2 C 77 % 1016,7 hPa 0,0 l/m 8,7 km/h (2 Bft) S-SW 202 3 min 951 W/m 13,1 C 16,1 C 12,9 km/h (3 Bft)
03.07.2016 16:18 17,7 C 77 % 1016,7 hPa 0,0 l/m 7,8 km/h (2 Bft) SW 221 3 min 951 W/m 13,6 C 17,0 C 16,1 km/h (3 Bft)
03.07.2016 16:21 18,2 C 76 % 1016,7 hPa 0,0 l/m 8,7 km/h (2 Bft) W 274 0 min 195 W/m 13,9 C 17,2 C 16,1 km/h (3 Bft)
03.07.2016 16:24 18,9 C 72 % 1016,8 hPa 0,0 l/m 12,5 km/h (2 Bft) W 277 3 min 754 W/m 13,7 C 16,6 C 24,1 km/h (4 Bft)
03.07.2016 16:27 19,2 C 67 % 1016,8 hPa 0,0 l/m 9,0 km/h (2 Bft) W 275 3 min 714 W/m 12,9 C 18,1 C 19,3 km/h (3 Bft)
03.07.2016 16:30 19,0 C 66 % 1016,8 hPa 0,0 l/m 7,1 km/h (2 Bft) W-SW 248 3 min 707 W/m 12,5 C 18,7 C 16,1 km/h (3 Bft)
03.07.2016 16:33 19,3 C 65 % 1016,8 hPa 0,0 l/m 12,9 km/h (3 Bft) SW 236 3 min 443 W/m 12,6 C 17,0 C 24,1 km/h (4 Bft)
03.07.2016 16:36 19,0 C 67 % 1016,8 hPa 0,0 l/m 9,3 km/h (2 Bft) W 274 3 min 708 W/m 12,7 C 17,8 C 14,5 km/h (3 Bft)
03.07.2016 16:39 19,3 C 66 % 1016,8 hPa 0,0 l/m 10,0 km/h (2 Bft) NW 306 3 min 733 W/m 12,8 C 17,9 C 20,9 km/h (4 Bft)
03.07.2016 16:42 19,5 C 66 % 1016,8 hPa 0,0 l/m 10,6 km/h (2 Bft) W-SW 245 3 min 696 W/m 13,0 C 17,9 C 19,3 km/h (3 Bft)
03.07.2016 16:45 19,4 C 66 % 1016,8 hPa 0,0 l/m 9,1 km/h (2 Bft) NW 304 3 min 733 W/m 12,9 C 18,3 C 19,3 km/h (3 Bft)
03.07.2016 16:48 19,7 C 66 % 1016,8 hPa 0,0 l/m 10,0 km/h (2 Bft) W-NW 292 3 min 708 W/m 13,2 C 18,3 C 17,7 km/h (3 Bft)
03.07.2016 16:51 19,8 C 64 % 1016,9 hPa 0,0 l/m 8,9 km/h (2 Bft) W-SW 258 3 min 580 W/m 12,8 C 18,8 C 16,1 km/h (3 Bft)
03.07.2016 16:54 19,9 C 64 % 1016,9 hPa 0,0 l/m 7,6 km/h (2 Bft) W-NW 285 3 min 728 W/m 12,9 C 19,4 C 14,5 km/h (3 Bft)
03.07.2016 16:57 20,1 C 63 % 1016,8 hPa 0,0 l/m 8,0 km/h (2 Bft) SW 234 3 min 737 W/m 12,8 C 19,5 C 16,1 km/h (3 Bft)
03.07.2016 17:00 19,6 C 65 % 1016,9 hPa 0,0 l/m 14,0 km/h (3 Bft) W-NW 285 3 min 700 W/m 12,8 C 17,0 C 20,9 km/h (4 Bft)
03.07.2016 17:03 19,9 C 62 % 1016,9 hPa 0,0 l/m 12,0 km/h (2 Bft) SW 219 3 min 422 W/m 12,4 C 17,9 C 17,7 km/h (3 Bft)
03.07.2016 17:06 19,3 C 61 % 1017,0 hPa 0,0 l/m 12,8 km/h (3 Bft) W 276 3 min 698 W/m 11,6 C 17,0 C 19,3 km/h (3 Bft)
03.07.2016 17:09 19,2 C 63 % 1017,0 hPa 0,0 l/m 13,2 km/h (3 Bft) W 272 3 min 666 W/m 12,0 C 16,8 C 20,9 km/h (4 Bft)
03.07.2016 17:12 19,2 C 63 % 1017,0 hPa 0,0 l/m 13,2 km/h (3 Bft) SW 223 3 min 682 W/m 12,0 C 16,8 C 24,1 km/h (4 Bft)
03.07.2016 17:15 18,8 C 63 % 1017,0 hPa 0,0 l/m 12,6 km/h (3 Bft) SW 221 3 min 675 W/m 11,6 C 16,5 C 24,1 km/h (4 Bft)
03.07.2016 17:18 19,2 C 64 % 1017,0 hPa 0,0 l/m 9,7 km/h (2 Bft) SW 224 3 min 666 W/m 12,2 C 17,9 C 17,7 km/h (3 Bft)
03.07.2016 17:21 19,3 C 65 % 1017,0 hPa 0,0 l/m 12,0 km/h (2 Bft) S-SW 211 0 min 160 W/m 12,6 C 17,2 C 22,5 km/h (4 Bft)
03.07.2016 17:24 19,4 C 64 % 1016,9 hPa 0,0 l/m 10,6 km/h (2 Bft) W-SW 240 3 min 700 W/m 12,4 C 17,8 C 17,7 km/h (3 Bft)
03.07.2016 17:27 19,5 C 66 % 1017,0 hPa 0,0 l/m 8,5 km/h (2 Bft) W-SW 240 3 min 703 W/m 13,0 C 18,6 C 16,1 km/h (3 Bft)
03.07.2016 17:30 19,7 C 63 % 1017,1 hPa 0,0 l/m 12,0 km/h (2 Bft) W-NW 289 3 min 666 W/m 12,5 C 17,7 C 22,5 km/h (4 Bft)
03.07.2016 17:33 19,8 C 62 % 1017,0 hPa 0,0 l/m 12,3 km/h (2 Bft) W-NW 292 3 min 666 W/m 12,3 C 17,7 C 20,9 km/h (4 Bft)
03.07.2016 17:36 19,7 C 64 % 1017,0 hPa 0,0 l/m 9,9 km/h (2 Bft) W-NW 285 0 min 237 W/m 12,7 C 18,3 C 16,1 km/h (3 Bft)
03.07.2016 17:39 19,6 C 62 % 1017,0 hPa 0,0 l/m 11,4 km/h (2 Bft) S-SW 212 3 min 703 W/m 12,1 C 17,7 C 19,3 km/h (3 Bft)
03.07.2016 17:42 19,2 C 63 % 1017,0 hPa 0,0 l/m 11,4 km/h (2 Bft) W 277 0 min 230 W/m 12,0 C 17,3 C 22,5 km/h (4 Bft)
03.07.2016 17:45 19,1 C 65 % 1017,0 hPa 0,0 l/m 9,8 km/h (2 Bft) W-SW 250 0 min 148 W/m 12,4 C 17,7 C 16,1 km/h (3 Bft)
03.07.2016 17:48 18,9 C 64 % 1017,0 hPa 0,0 l/m 11,3 km/h (2 Bft) W-NW 292 0 min 237 W/m 11,9 C 17,0 C 20,9 km/h (4 Bft)
03.07.2016 17:51 19,0 C 65 % 1017,0 hPa 0,0 l/m 10,3 km/h (2 Bft) W-SW 248 3 min 575 W/m 12,3 C 17,4 C 24,1 km/h (4 Bft)
03.07.2016 17:54 18,9 C 65 % 1017,1 hPa 0,0 l/m 15,0 km/h (3 Bft) W 273 3 min 568 W/m 12,2 C 15,9 C 25,7 km/h (4 Bft)
03.07.2016 17:57 18,8 C 64 % 1017,0 hPa 0,0 l/m 8,8 km/h (2 Bft) W-SW 246 0 min 241 W/m 11,8 C 17,8 C 16,1 km/h (3 Bft)
03.07.2016 18:00 18,6 C 66 % 1017,0 hPa 0,0 l/m 10,6 km/h (2 Bft) SW 230 0 min 134 W/m 12,1 C 16,9 C 20,9 km/h (4 Bft)
03.07.2016 18:03 18,6 C 68 % 1017,0 hPa 0,0 l/m 6,5 km/h (2 Bft) W-NW 303 3 min 563 W/m 12,6 C 18,6 C 14,5 km/h (3 Bft)
03.07.2016 18:06 18,9 C 66 % 1017,0 hPa 0,0 l/m 10,7 km/h (2 Bft) W 272 3 min 432 W/m 12,4 C 17,2 C 24,1 km/h (4 Bft)
03.07.2016 18:09 19,1 C 65 % 1017,0 hPa 0,0 l/m 11,2 km/h (2 Bft) W-SW 249 3 min 501 W/m 12,4 C 17,2 C 19,3 km/h (3 Bft)
03.07.2016 18:12 19,1 C 63 % 1017,1 hPa 0,0 l/m 9,4 km/h (2 Bft) NW 309 0 min 120 W/m 11,9 C 17,9 C 19,3 km/h (3 Bft)
03.07.2016 18:15 18,8 C 64 % 1017,1 hPa 0,0 l/m 8,7 km/h (2 Bft) SW 234 0 min 195 W/m 11,8 C 17,8 C 16,1 km/h (3 Bft)
03.07.2016 18:18 18,6 C 65 % 1017,1 hPa 0,0 l/m 11,6 km/h (2 Bft) W 276 0 min 202 W/m 11,9 C 16,5 C 20,9 km/h (4 Bft)
03.07.2016 18:21 18,5 C 65 % 1017,1 hPa 0,0 l/m 8,2 km/h (2 Bft) W-NW 298 0 min 125 W/m 11,8 C 17,7 C 16,1 km/h (3 Bft)
03.07.2016 18:24 18,5 C 67 % 1017,1 hPa 0,0 l/m 7,0 km/h (2 Bft) W-SW 240 3 min 313 W/m 12,3 C 18,2 C 16,1 km/h (3 Bft)
03.07.2016 18:27 18,4 C 68 % 1017,1 hPa 0,0 l/m 10,1 km/h (2 Bft) W 270 3 min 496 W/m 12,4 C 16,8 C 19,3 km/h (3 Bft)
03.07.2016 18:30 18,4 C 65 % 1017,2 hPa 0,0 l/m 9,2 km/h (2 Bft) W 276 0 min 162 W/m 11,7 C 17,2 C 20,9 km/h (4 Bft)
03.07.2016 18:33 18,2 C 67 % 1017,2 hPa 0,0 l/m 12,9 km/h (3 Bft) W 268 0 min 111 W/m 12,0 C 15,7 C 20,9 km/h (4 Bft)
03.07.2016 18:36 18,3 C 67 % 1017,1 hPa 0,0 l/m 10,5 km/h (2 Bft) W-SW 258 3 min 478 W/m 12,1 C 16,6 C 17,7 km/h (3 Bft)
03.07.2016 18:39 18,2 C 67 % 1017,1 hPa 0,0 l/m 9,2 km/h (2 Bft) W 279 0 min 69 W/m 12,0 C 17,0 C 16,1 km/h (3 Bft)
03.07.2016 18:42 17,9 C 66 % 1017,1 hPa 0,0 l/m 9,7 km/h (2 Bft) W-SW 243 0 min 74 W/m 11,5 C 16,4 C 20,9 km/h (4 Bft)
03.07.2016 18:45 17,7 C 66 % 1017,1 hPa 0,0 l/m 7,9 km/h (2 Bft) SW 227 0 min 223 W/m 11,3 C 17,0 C 17,7 km/h (3 Bft)
03.07.2016 18:48 17,7 C 69 % 1017,1 hPa 0,0 l/m 11,3 km/h (2 Bft) W 275 0 min 216 W/m 11,9 C 15,6 C 19,3 km/h (3 Bft)
03.07.2016 18:51 17,9 C 66 % 1017,2 hPa 0,0 l/m 10,0 km/h (2 Bft) W 272 0 min 95 W/m 11,5 C 16,3 C 14,5 km/h (3 Bft)
03.07.2016 18:54 17,9 C 67 % 1017,2 hPa 0,0 l/m 11,9 km/h (2 Bft) W-NW 295 3 min 413 W/m 11,7 C 15,6 C 19,3 km/h (3 Bft)
03.07.2016 18:57 18,1 C 65 % 1017,1 hPa 0,0 l/m 9,7 km/h (2 Bft) W 270 3 min 397 W/m 11,4 C 16,7 C 17,7 km/h (3 Bft)
03.07.2016 19:00 18,3 C 66 % 1017,1 hPa 0,0 l/m 7,3 km/h (2 Bft) W-SW 255 3 min 371 W/m 11,8 C 17,9 C 16,1 km/h (3 Bft)
03.07.2016 19:03 18,3 C 64 % 1017,2 hPa 0,0 l/m 10,8 km/h (2 Bft) W-SW 252 3 min 265 W/m 11,4 C 16,5 C 20,9 km/h (4 Bft)
03.07.2016 19:06 18,1 C 65 % 1017,2 hPa 0,0 l/m 8,3 km/h (2 Bft) W 270 0 min 77 W/m 11,4 C 17,2 C 14,5 km/h (3 Bft)
03.07.2016 19:09 17,8 C 67 % 1017,3 hPa 0,0 l/m 12,6 km/h (3 Bft) W-NW 292 0 min 104 W/m 11,6 C 15,3 C 20,9 km/h (4 Bft)
03.07.2016 19:12 17,7 C 67 % 1017,3 hPa 0,0 l/m 11,9 km/h (2 Bft) W-SW 244 0 min 128 W/m 11,5 C 15,4 C 22,5 km/h (4 Bft)
03.07.2016 19:15 17,5 C 68 % 1017,4 hPa 0,0 l/m 8,9 km/h (2 Bft) W-NW 284 0 min 137 W/m 11,5 C 16,3 C 16,1 km/h (3 Bft)
03.07.2016 19:18 17,3 C 69 % 1017,5 hPa 0,0 l/m 10,6 km/h (2 Bft) W 265 0 min 95 W/m 11,6 C 15,4 C 16,1 km/h (3 Bft)
03.07.2016 19:21 17,4 C 69 % 1017,4 hPa 0,0 l/m 7,0 km/h (2 Bft) W 279 3 min 330 W/m 11,7 C 17,1 C 12,9 km/h (3 Bft)
03.07.2016 19:24 17,6 C 66 % 1017,5 hPa 0,0 l/m 9,7 km/h (2 Bft) W 271 0 min 141 W/m 11,2 C 16,1 C 22,5 km/h (4 Bft)
03.07.2016 19:27 17,5 C 66 % 1017,5 hPa 0,0 l/m 9,0 km/h (2 Bft) S-SW 207 0 min 91 W/m 11,1 C 16,3 C 19,3 km/h (3 Bft)
03.07.2016 19:30 17,4 C 67 % 1017,5 hPa 0,0 l/m 9,8 km/h (2 Bft) W-NW 294 0 min 81 W/m 11,2 C 15,8 C 14,5 km/h (3 Bft)
03.07.2016 19:33 17,3 C 69 % 1017,5 hPa 0,0 l/m 6,4 km/h (2 Bft) W-SW 240 3 min 234 W/m 11,6 C 17,3 C 16,1 km/h (3 Bft)
03.07.2016 19:36 17,2 C 68 % 1017,6 hPa 0,0 l/m 9,9 km/h (2 Bft) W-SW 253 3 min 181 W/m 11,2 C 15,6 C 17,7 km/h (3 Bft)
03.07.2016 19:39 17,1 C 69 % 1017,6 hPa 0,0 l/m 11,1 km/h (2 Bft) SW 235 3 min 315 W/m 11,4 C 15,0 C 16,1 km/h (3 Bft)
03.07.2016 19:42 17,2 C 69 % 1017,6 hPa 0,0 l/m 11,0 km/h (2 Bft) W-SW 242 3 min 302 W/m 11,5 C 15,2 C 20,9 km/h (4 Bft)
03.07.2016 19:45 17,3 C 69 % 1017,6 hPa 0,0 l/m 9,5 km/h (2 Bft) W-NW 300 3 min 311 W/m 11,6 C 15,9 C 24,1 km/h (4 Bft)
03.07.2016 19:48 17,3 C 70 % 1017,6 hPa 0,0 l/m 7,4 km/h (2 Bft) W-NW 300 0 min 65 W/m 11,8 C 16,8 C 12,9 km/h (3 Bft)
03.07.2016 19:51 17,3 C 68 % 1017,7 hPa 0,0 l/m 10,4 km/h (2 Bft) W 277 0 min 58 W/m 11,3 C 15,5 C 19,3 km/h (3 Bft)
03.07.2016 19:54 17,1 C 68 % 1017,8 hPa 0,0 l/m 7,5 km/h (2 Bft) W 263 3 min 241 W/m 11,1 C 16,5 C 14,5 km/h (3 Bft)
03.07.2016 19:57 17,2 C 68 % 1017,8 hPa 0,0 l/m 9,1 km/h (2 Bft) W 273 3 min 195 W/m 11,2 C 15,9 C 16,1 km/h (3 Bft)
03.07.2016 20:00 17,1 C 68 % 1017,8 hPa 0,0 l/m 7,2 km/h (2 Bft) NW 304 0 min 39 W/m 11,1 C 16,7 C 17,7 km/h (3 Bft)
03.07.2016 20:03 16,9 C 69 % 1017,8 hPa 0,0 l/m 9,4 km/h (2 Bft) W 261 0 min 39 W/m 11,2 C 15,5 C 19,3 km/h (3 Bft)
03.07.2016 20:06 16,8 C 69 % 1017,8 hPa 0,0 l/m 8,7 km/h (2 Bft) W 280 0 min 44 W/m 11,1 C 15,7 C 16,1 km/h (3 Bft)
03.07.2016 20:09 16,6 C 69 % 1017,8 hPa 0,0 l/m 8,5 km/h (2 Bft) W-SW 254 3 min 171 W/m 10,9 C 15,5 C 17,7 km/h (3 Bft)
03.07.2016 20:12 16,6 C 70 % 1017,8 hPa 0,0 l/m 10,6 km/h (2 Bft) W-NW 285 0 min 54 W/m 11,1 C 14,6 C 16,1 km/h (3 Bft)
03.07.2016 20:15 16,6 C 70 % 1017,9 hPa 0,0 l/m 4,9 km/h (1 Bft) W 261 0 min 53 W/m 11,1 C 16,6 C 12,9 km/h (3 Bft)
03.07.2016 20:18 16,5 C 71 % 1017,9 hPa 0,0 l/m 8,3 km/h (2 Bft) W 271 0 min 65 W/m 11,2 C 15,5 C 20,9 km/h (4 Bft)
03.07.2016 20:21 16,5 C 73 % 1017,9 hPa 0,0 l/m 6,3 km/h (2 Bft) W-NW 291 3 min 123 W/m 11,6 C 16,5 C 12,9 km/h (3 Bft)
03.07.2016 20:24 16,5 C 73 % 1017,9 hPa 0,0 l/m 6,5 km/h (2 Bft) W 275 0 min 54 W/m 11,6 C 16,5 C 12,9 km/h (3 Bft)
03.07.2016 20:27 16,6 C 72 % 1018,0 hPa 0,0 l/m 9,1 km/h (2 Bft) W 266 0 min 44 W/m 11,5 C 15,3 C 19,3 km/h (3 Bft)
03.07.2016 20:30 16,6 C 72 % 1018,0 hPa 0,0 l/m 5,9 km/h (2 Bft) W 276 0 min 40 W/m 11,5 C 16,6 C 12,9 km/h (3 Bft)
03.07.2016 20:33 16,4 C 72 % 1018,0 hPa 0,0 l/m 7,9 km/h (2 Bft) W-NW 285 0 min 42 W/m 11,3 C 15,6 C 12,9 km/h (3 Bft)
03.07.2016 20:36 16,4 C 72 % 1018,0 hPa 0,0 l/m 6,9 km/h (2 Bft) W 277 0 min 42 W/m 11,3 C 16,1 C 14,5 km/h (3 Bft)
03.07.2016 20:39 16,3 C 71 % 1018,0 hPa 0,0 l/m 4,8 km/h (1 Bft) W-NW 296 0 min 23 W/m 11,0 C 16,3 C 11,3 km/h (2 Bft)
03.07.2016 20:42 16,3 C 71 % 1018,1 hPa 0,0 l/m 6,6 km/h (2 Bft) W-NW 290 0 min 30 W/m 11,0 C 16,2 C 12,9 km/h (3 Bft)
03.07.2016 20:45 16,2 C 71 % 1018,0 hPa 0,0 l/m 7,0 km/h (2 Bft) W 259 0 min 21 W/m 10,9 C 15,9 C 12,9 km/h (3 Bft)
03.07.2016 20:48 16,2 C 72 % 1018,1 hPa 0,0 l/m 7,9 km/h (2 Bft) W 275 0 min 21 W/m 11,1 C 15,4 C 14,5 km/h (3 Bft)
03.07.2016 20:51 16,1 C 71 % 1018,0 hPa 0,0 l/m 8,5 km/h (2 Bft) W 281 0 min 18 W/m 10,8 C 15,0 C 14,5 km/h (3 Bft)
03.07.2016 20:54 16,1 C 70 % 1018,1 hPa 0,0 l/m 7,8 km/h (2 Bft) W 262 0 min 16 W/m 10,6 C 15,4 C 12,9 km/h (3 Bft)
03.07.2016 20:57 15,9 C 70 % 1018,0 hPa 0,0 l/m 8,3 km/h (2 Bft) W-SW 257 0 min 18 W/m 10,4 C 14,9 C 14,5 km/h (3 Bft)
03.07.2016 21:00 15,9 C 70 % 1018,1 hPa 0,0 l/m 6,4 km/h (2 Bft) W 280 0 min 21 W/m 10,4 C 15,9 C 11,3 km/h (2 Bft)
03.07.2016 21:03 15,8 C 70 % 1018,2 hPa 0,0 l/m 5,7 km/h (2 Bft) W 265 0 min 18 W/m 10,3 C 15,8 C 11,3 km/h (2 Bft)
03.07.2016 21:06 15,8 C 71 % 1018,2 hPa 0,0 l/m 6,8 km/h (2 Bft) W 271 0 min 16 W/m 10,6 C 15,6 C 12,9 km/h (3 Bft)
03.07.2016 21:09 15,7 C 71 % 1018,2 hPa 0,0 l/m 6,6 km/h (2 Bft) W-SW 252 0 min 16 W/m 10,5 C 15,6 C 12,9 km/h (3 Bft)
03.07.2016 21:12 15,7 C 71 % 1018,3 hPa 0,0 l/m 6,7 km/h (2 Bft) W 276 0 min 16 W/m 10,5 C 15,5 C 11,3 km/h (2 Bft)
03.07.2016 21:15 15,6 C 71 % 1018,3 hPa 0,0 l/m 7,0 km/h (2 Bft) W 279 0 min 14 W/m 10,4 C 15,3 C 16,1 km/h (3 Bft)
03.07.2016 21:18 15,6 C 71 % 1018,3 hPa 0,0 l/m 5,1 km/h (1 Bft) W-SW 246 0 min 14 W/m 10,4 C 15,6 C 9,7 km/h (2 Bft)
03.07.2016 21:21 15,6 C 72 % 1018,2 hPa 0,0 l/m 7,2 km/h (2 Bft) SW 221 0 min 19 W/m 10,6 C 15,2 C 14,5 km/h (3 Bft)
03.07.2016 21:24 15,6 C 72 % 1018,3 hPa 0,0 l/m 5,2 km/h (1 Bft) W 277 0 min 23 W/m 10,6 C 15,6 C 11,3 km/h (2 Bft)
03.07.2016 21:27 15,6 C 73 % 1018,3 hPa 0,0 l/m 4,8 km/h (1 Bft) SW 231 0 min 12 W/m 10,8 C 15,6 C 9,7 km/h (2 Bft)
03.07.2016 21:30 15,6 C 74 % 1018,3 hPa 0,0 l/m 4,6 km/h (1 Bft) W 266 0 min 16 W/m 11,0 C 15,6 C 11,3 km/h (2 Bft)
03.07.2016 21:33 15,5 C 74 % 1018,3 hPa 0,0 l/m 5,2 km/h (1 Bft) W-SW 242 0 min 18 W/m 10,9 C 15,5 C 9,7 km/h (2 Bft)
03.07.2016 21:36 15,4 C 74 % 1018,4 hPa 0,0 l/m 4,2 km/h (1 Bft) W 261 0 min 21 W/m 10,8 C 15,4 C 6,4 km/h (2 Bft)
03.07.2016 21:39 15,4 C 74 % 1018,3 hPa 0,0 l/m 4,2 km/h (1 Bft) W 268 0 min 11 W/m 10,8 C 15,4 C 6,4 km/h (2 Bft)
03.07.2016 21:42 15,4 C 74 % 1018,4 hPa 0,0 l/m 3,7 km/h (1 Bft) W-NW 282 0 min 12 W/m 10,8 C 15,4 C 9,7 km/h (2 Bft)
03.07.2016 21:45 15,4 C 75 % 1018,3 hPa 0,0 l/m 4,4 km/h (1 Bft) W 272 0 min 7 W/m 11,0 C 15,4 C 9,7 km/h (2 Bft)
03.07.2016 21:48 15,3 C 76 % 1018,3 hPa 0,0 l/m 3,6 km/h (1 Bft) W-NW 287 0 min 7 W/m 11,1 C 15,3 C 6,4 km/h (2 Bft)
03.07.2016 21:51 15,3 C 77 % 1018,4 hPa 0,0 l/m 7,6 km/h (2 Bft) W 273 0 min 0 W/m 11,3 C 14,6 C 12,9 km/h (3 Bft)
03.07.2016 21:54 15,3 C 76 % 1018,4 hPa 0,0 l/m 4,7 km/h (1 Bft) W 271 0 min 0 W/m 11,1 C 15,3 C 6,4 km/h (2 Bft)
03.07.2016 21:57 15,1 C 75 % 1018,4 hPa 0,0 l/m 4,9 km/h (1 Bft) W 267 0 min 0 W/m 10,7 C 15,1 C 11,3 km/h (2 Bft)
03.07.2016 22:00 15,1 C 75 % 1018,4 hPa 0,0 l/m 3,7 km/h (1 Bft) W-SW 257 0 min 0 W/m 10,7 C 15,1 C 9,7 km/h (2 Bft)
03.07.2016 22:03 14,9 C 74 % 1018,4 hPa 0,0 l/m 4,7 km/h (1 Bft) SW 225 0 min 0 W/m 10,3 C 14,9 C 8,0 km/h (2 Bft)
03.07.2016 22:06 14,8 C 75 % 1018,4 hPa 0,0 l/m 2,9 km/h (1 Bft) SW 223 0 min 0 W/m 10,4 C 14,8 C 6,4 km/h (2 Bft)
03.07.2016 22:09 14,7 C 75 % 1018,5 hPa 0,0 l/m 3,3 km/h (1 Bft) S-SW 209 0 min 0 W/m 10,3 C 14,7 C 6,4 km/h (2 Bft)
03.07.2016 22:12 14,6 C 76 % 1018,5 hPa 0,0 l/m 3,8 km/h (1 Bft) SW 223 0 min 0 W/m 10,4 C 14,6 C 6,4 km/h (2 Bft)
03.07.2016 22:15 14,5 C 76 % 1018,4 hPa 0,0 l/m 3,4 km/h (1 Bft) SW 223 0 min 0 W/m 10,3 C 14,5 C 6,4 km/h (2 Bft)
03.07.2016 22:18 14,4 C 77 % 1018,4 hPa 0,0 l/m 3,4 km/h (1 Bft) SW 223 0 min 0 W/m 10,4 C 14,4 C 6,4 km/h (2 Bft)
03.07.2016 22:21 14,4 C 77 % 1018,5 hPa 0,0 l/m 4,1 km/h (1 Bft) W 260 0 min 0 W/m 10,4 C 14,4 C 9,7 km/h (2 Bft)
03.07.2016 22:24 14,4 C 77 % 1018,4 hPa 0,0 l/m 3,6 km/h (1 Bft) W 281 0 min 0 W/m 10,4 C 14,4 C 9,7 km/h (2 Bft)
03.07.2016 22:27 14,4 C 77 % 1018,4 hPa 0,0 l/m 4,0 km/h (1 Bft) SW 221 0 min 0 W/m 10,4 C 14,4 C 6,4 km/h (2 Bft)
03.07.2016 22:30 14,2 C 77 % 1018,5 hPa 0,0 l/m 3,5 km/h (1 Bft) SW 223 0 min 0 W/m 10,2 C 14,2 C 6,4 km/h (2 Bft)
03.07.2016 22:33 14,0 C 78 % 1018,5 hPa 0,0 l/m 3,6 km/h (1 Bft) SW 223 0 min 0 W/m 10,2 C 14,0 C 6,4 km/h (2 Bft)
03.07.2016 22:36 13,8 C 79 % 1018,5 hPa 0,0 l/m 3,4 km/h (1 Bft) SW 223 0 min 0 W/m 10,2 C 13,8 C 4,8 km/h (1 Bft)
03.07.2016 22:39 13,7 C 80 % 1018,5 hPa 0,0 l/m 2,6 km/h (1 Bft) SW 223 0 min 0 W/m 10,3 C 13,7 C 4,8 km/h (1 Bft)
03.07.2016 22:42 13,6 C 81 % 1018,6 hPa 0,0 l/m 3,0 km/h (1 Bft) SW 223 0 min 0 W/m 10,4 C 13,6 C 6,4 km/h (2 Bft)
03.07.2016 22:45 13,6 C 82 % 1018,7 hPa 0,0 l/m 3,8 km/h (1 Bft) SW 232 0 min 0 W/m 10,6 C 13,6 C 6,4 km/h (2 Bft)
03.07.2016 22:48 13,6 C 82 % 1018,7 hPa 0,0 l/m 3,9 km/h (1 Bft) W-SW 257 0 min 0 W/m 10,6 C 13,6 C 6,4 km/h (2 Bft)
03.07.2016 22:51 13,6 C 81 % 1018,7 hPa 0,0 l/m 3,0 km/h (1 Bft) W-SW 257 0 min 0 W/m 10,4 C 13,6 C 6,4 km/h (2 Bft)
03.07.2016 22:54 13,6 C 82 % 1018,7 hPa 0,0 l/m 3,5 km/h (1 Bft) SW 216 0 min 0 W/m 10,6 C 13,6 C 6,4 km/h (2 Bft)
03.07.2016 22:57 13,4 C 82 % 1018,7 hPa 0,0 l/m 3,9 km/h (1 Bft) SW 217 0 min 0 W/m 10,4 C 13,4 C 4,8 km/h (1 Bft)
03.07.2016 23:00 13,4 C 82 % 1018,7 hPa 0,0 l/m 3,5 km/h (1 Bft) SW 225 0 min 0 W/m 10,4 C 13,4 C 6,4 km/h (2 Bft)
03.07.2016 23:03 13,6 C 82 % 1018,7 hPa 0,0 l/m 5,1 km/h (1 Bft) W-SW 244 0 min 0 W/m 10,6 C 13,6 C 9,7 km/h (2 Bft)
03.07.2016 23:06 13,8 C 81 % 1018,7 hPa 0,0 l/m 6,2 km/h (2 Bft) W-SW 246 0 min 0 W/m 10,6 C 13,8 C 11,3 km/h (2 Bft)
03.07.2016 23:09 13,9 C 80 % 1018,8 hPa 0,0 l/m 4,0 km/h (1 Bft) SW 223 0 min 0 W/m 10,5 C 13,9 C 6,4 km/h (2 Bft)
03.07.2016 23:12 14,1 C 80 % 1018,7 hPa 0,0 l/m 3,6 km/h (1 Bft) W 278 0 min 0 W/m 10,7 C 14,1 C 8,0 km/h (2 Bft)
03.07.2016 23:15 14,1 C 79 % 1018,8 hPa 0,0 l/m 7,2 km/h (2 Bft) W 278 0 min 0 W/m 10,5 C 13,6 C 12,9 km/h (3 Bft)
03.07.2016 23:18 14,3 C 78 % 1018,8 hPa 0,0 l/m 6,1 km/h (2 Bft) W 260 0 min 0 W/m 10,5 C 14,3 C 12,9 km/h (3 Bft)
03.07.2016 23:21 14,6 C 77 % 1018,8 hPa 0,0 l/m 6,7 km/h (2 Bft) W-SW 239 0 min 0 W/m 10,6 C 14,4 C 14,5 km/h (3 Bft)
03.07.2016 23:24 14,7 C 77 % 1018,8 hPa 0,0 l/m 5,7 km/h (2 Bft) W 267 0 min 0 W/m 10,7 C 14,7 C 16,1 km/h (3 Bft)
03.07.2016 23:27 14,8 C 77 % 1018,8 hPa 0,0 l/m 4,2 km/h (1 Bft) W 275 0 min 0 W/m 10,8 C 14,8 C 9,7 km/h (2 Bft)
03.07.2016 23:30 14,8 C 77 % 1018,8 hPa 0,0 l/m 3,6 km/h (1 Bft) W-SW 255 0 min 0 W/m 10,8 C 14,8 C 9,7 km/h (2 Bft)
03.07.2016 23:33 14,8 C 77 % 1018,8 hPa 0,0 l/m 5,7 km/h (2 Bft) SW 231 0 min 0 W/m 10,8 C 14,8 C 9,7 km/h (2 Bft)
03.07.2016 23:36 14,8 C 77 % 1018,9 hPa 0,0 l/m 6,3 km/h (2 Bft) W-SW 254 0 min 0 W/m 10,8 C 14,8 C 12,9 km/h (3 Bft)
03.07.2016 23:39 14,9 C 77 % 1018,9 hPa 0,0 l/m 6,6 km/h (2 Bft) W-SW 241 0 min 0 W/m 10,9 C 14,8 C 16,1 km/h (3 Bft)
03.07.2016 23:42 14,9 C 76 % 1018,9 hPa 0,0 l/m 5,9 km/h (2 Bft) SW 228 0 min 0 W/m 10,7 C 14,9 C 9,7 km/h (2 Bft)
03.07.2016 23:45 14,9 C 76 % 1018,9 hPa 0,0 l/m 6,2 km/h (2 Bft) W-NW 288 0 min 0 W/m 10,7 C 14,9 C 14,5 km/h (3 Bft)
03.07.2016 23:48 14,9 C 76 % 1018,9 hPa 0,0 l/m 6,6 km/h (2 Bft) W 265 0 min 0 W/m 10,7 C 14,8 C 16,1 km/h (3 Bft)
03.07.2016 23:51 15,0 C 76 % 1018,9 hPa 0,0 l/m 8,3 km/h (2 Bft) W-NW 290 0 min 0 W/m 10,8 C 13,9 C 16,1 km/h (3 Bft)
03.07.2016 23:54 15,0 C 76 % 1018,8 hPa 0,0 l/m 8,2 km/h (2 Bft) W-SW 247 0 min 0 W/m 10,8 C 14,0 C 16,1 km/h (3 Bft)
03.07.2016 23:57 15,0 C 75 % 1018,9 hPa 0,0 l/m 5,8 km/h (2 Bft) SW 219 0 min 0 W/m 10,6 C 15,0 C 11,3 km/h (2 Bft)
_ Min-Zeit 03:42 17:06 04:18 - 00:45 - - - - 12:15 08:03 00:00
Minimum _ 11,0 C 61 % 1013,3 hPa - 2,3 km/h (1 Bft) - - - - 10,1 C 8,0 C 4,8 km/h (1 Bft)
_ Max-Zeit 15:12 02:42 23:36 12:12 12:00 - - 10:54 15:18 14:57 16:57 12:00
Maximum _ 20,2 C 95 % 1018,9 hPa 3,4 l/m 22,0 km/h
NW (4 Bft)
- - 3 min 977 W/m 14,6 C 19,5 C 40,2 km/h
NW (6 Bft)
Durchschnitt _ 14,9 C 82 % 1015,7 hPa #11,6 l/m 9,4 km/h (2 Bft) SW - #4:54 h 255 W/m 11,6 C 13,3 C 16,4 km/h (3 Bft)
2016 Cux-Wetter.de -Die Nutzung der Wetterdaten nur mit ausdrcklicher Genehmigung